KC5DAQ-22 Weather Reports


time (UTC)temp
C
wind
direction
speed
KPH
gust
KPH
rain 1hr
cm
rain 24hr
cm
rain mn
cm
humidity
%
barometer
mb
20260903141703 27 118 4.8 9.7 0.00 0.30 0.30 94 1013.0
20260903141605 27 117 6.4 9.7 0.00 0.30 0.30 94 1013.0
20260903141503 27 97 6.4 9.7 0.00 0.30 0.30 94 1013.0
20260903141401 27 96 6.4 8.0 0.00 0.30 0.30 94 1013.0
20260903141302 27 94 8.0 8.0 0.00 0.30 0.30 94 1013.0
20260903141203 27 93 6.4 8.0 0.00 0.30 0.30 94 1013.0
20260903141102 27 92 4.8 8.0 0.00 0.30 0.30 95 1012.9
20260903141003 27 107 4.8 8.0 0.00 0.30 0.30 95 1012.9
20260903140902 27 93 6.4 8.0 0.00 0.30 0.30 95 1013.0
20260903140803 27 93 6.4 8.0 0.00 0.30 0.30 95 1012.9
20260903140703 27 93 6.4 8.0 0.00 0.30 0.30 95 1013.0
20260903140603 27 93 6.4 8.0 0.00 0.30 0.30 95 1013.0
20260903140502 27 66 4.8 6.4 0.00 0.30 0.30 95 1013.0
20260903140403 27 63 4.8 6.4 0.00 0.30 0.30 95 1013.0
20260903140303 27 56 4.8 6.4 0.00 0.30 0.30 95 1013.0
20260903140203 27 56 6.4 6.4 0.00 0.30 0.30 95 1012.9
20260903140004 27 52 4.8 6.4 0.00 0.30 0.30 95 1012.9
20260903135903 27 52 4.8 6.4 0.00 0.30 0.30 94 1012.9
20260903135804 27 52 3.2 4.8 0.00 0.30 0.30 94 1012.8
20260903135702 27 52 3.2 4.8 0.00 0.30 0.30 94 1012.8
20260903135602 27 52 3.2 4.8 0.00 0.30 0.30 94 1012.8
20260903135502 27 52 3.2 3.2 0.00 0.30 0.30 94 1012.8
20260903135403 27 52 0.0 1.6 0.00 0.30 0.30 94 1012.8
20260903135306 27 52 0.0 1.6 0.00 0.30 0.30 94 1012.8
20260903135203 27 52 0.0 1.6 0.00 0.30 0.30 94 1012.8
20260903135103 27 52 0.0 1.6 0.00 0.30 0.30 94 1012.8
20260903135003 27 52 0.0 1.6 0.00 0.30 0.30 94 1012.8
20260903134902 27 52 0.0 1.6 0.00 0.30 0.30 94 1012.7
20260903134802 27 52 0.0 1.6 0.00 0.30 0.30 94 1012.7
20260903134703 27 52 0.0 1.6 0.00 0.30 0.30 94 1012.7
20260903134603 27 52 0.0 1.6 0.00 0.30 0.30 94 1012.7
20260903134503 27 52 0.0 0.0 0.00 0.30 0.30 94 1012.7
20260903134403 27 52 0.0 3.2 0.00 0.30 0.30 94 1012.6
20260903134301 27 52 0.0 3.2 0.00 0.30 0.30 94 1012.6
20260903134204 27 52 0.0 6.4 0.00 0.30 0.30 94 1012.7
20260903134103 27 52 0.0 6.4 0.00 0.30 0.30 94 1012.7
20260903134002 27 52 0.0 6.4 0.00 0.30 0.30 94 1012.6
20260903133903 27 52 0.0 6.4 0.00 0.30 0.30 94 1012.7
20260903133802 27 52 0.0 6.4 0.00 0.30 0.30 94 1012.6
20260903133704 27 52 0.0 6.4 0.00 0.30 0.30 94 1012.7
20260903133603 27 52 0.0 6.4 0.00 0.30 0.30 94 1012.7
20260903133503 27 52 1.6 6.4 0.00 0.30 0.30 94 1012.8
20260903133402 27 52 3.2 6.4 0.00 0.30 0.30 94 1012.8
20260903133303 27 52 4.8 6.4 0.00 0.30 0.30 94 1012.8
20260903133203 27 51 4.8 6.4 0.00 0.30 0.30 94 1012.8
20260903133103 27 51 4.8 6.4 0.00 0.30 0.30 94 1012.9
20260903133003 27 51 4.8 6.4 0.00 0.30 0.30 94 1012.9
20260903132903 27 51 4.8 6.4 0.00 0.30 0.30 94 1012.8
20260903132803 27 49 4.8 4.8 0.00 0.30 0.30 94 1012.8
20260903132704 27 49 4.8 4.8 0.00 0.30 0.30 94 1012.9
20260903132603 27 49 4.8 4.8 0.00 0.30 0.30 94 1012.9
20260903132503 27 49 4.8 6.4 0.00 0.30 0.30 94 1013.0
20260903132403 27 49 4.8 6.4 0.00 0.30 0.30 94 1013.0
20260903132306 27 49 4.8 6.4 0.00 0.30 0.30 94 1012.9
20260903132203 27 49 4.8 6.4 0.00 0.30 0.30 94 1012.9
20260903132104 27 49 4.8 6.4 0.00 0.30 0.30 94 1012.9
20260903132005 27 49 4.8 6.4 0.00 0.30 0.30 94 1012.9
20260903131902 27 49 3.2 6.4 0.00 0.30 0.30 94 1012.8
20260903131802 27 49 3.2 6.4 0.00 0.30 0.30 93 1012.8
20260903131702 27 85 4.8 6.4 0.00 0.30 0.30 93 1012.9
20260903131604 27 85 4.8 6.4 0.00 0.30 0.30 94 1012.9
20260903131504 27 85 3.2 6.4 0.00 0.30 0.30 94 1012.9
20260903131404 27 85 4.8 6.4 0.00 0.30 0.30 94 1012.8
20260903131259 27 85 4.8 6.4 0.00 0.30 0.30 94 1012.8
20260903131159 27 85 4.8 6.4 0.00 0.30 0.30 93 1012.8
20260903131057 27 83 3.2 6.4 0.00 0.30 0.30 93 1012.7
20260903130954 27 82 3.2 4.8 0.00 0.30 0.30 93 1012.7
20260903130851 27 82 3.2 4.8 0.00 0.30 0.30 93 1012.7
20260903130748 27 82 3.2 4.8 0.00 0.30 0.30 93 1012.7
20260903130649 27 82 3.2 4.8 0.00 0.30 0.30 94 1012.6
20260903130543 27 80 0.0 3.2 0.00 0.30 0.30 94 1012.6
20260903130442 27 80 0.0 0.0 0.00 0.30 0.30 94 1012.5
20260903130337 27 80 0.0 0.0 0.00 0.30 0.30 94 1012.4
20260903130234 27 80 0.0 0.0 0.00 0.30 0.30 94 1012.4
20260903130132 27 80 0.0 0.0 0.00 0.30 0.30 93 1012.4
20260903130034 27 80 0.0 0.0 0.00 0.30 0.30 94 1012.4
20260903125931 27 80 0.0 0.0 0.00 0.30 0.30 94 1012.3
20260903125831 27 80 0.0 0.0 0.00 0.30 0.30 93 1012.3
20260903125733 27 80 0.0 1.6 0.03 0.30 0.30 93 1012.3
20260903125632 27 80 0.0 3.2 0.03 0.30 0.30 93 1012.3
20260903125531 27 80 0.0 3.2 0.03 0.30 0.30 93 1012.3
20260903125431 27 80 0.0 3.2 0.03 0.30 0.30 93 1012.3
20260903125331 27 80 0.0 3.2 0.03 0.30 0.30 93 1012.3
20260903125232 27 80 0.0 3.2 0.03 0.30 0.30 93 1012.3
20260903125131 27 80 0.0 3.2 0.03 0.30 0.30 93 1012.3
20260903125033 27 80 0.0 3.2 0.03 0.30 0.30 93 1012.3
20260903124931 27 80 0.0 3.2 0.03 0.30 0.30 93 1012.4
20260903124831 27 80 1.6 3.2 0.03 0.30 0.30 93 1012.4
20260903124732 27 80 1.6 3.2 0.03 0.30 0.30 93 1012.4
20260903124632 27 80 0.0 1.6 0.03 0.30 0.30 93 1012.3
20260903124532 27 80 0.0 3.2 0.03 0.30 0.30 93 1012.4
20260903124432 27 80 0.0 3.2 0.03 0.30 0.30 93 1012.3
20260903124332 27 80 0.0 3.2 0.03 0.30 0.30 93 1012.4
20260903124233 27 80 0.0 4.8 0.03 0.30 0.30 93 1012.4
20260903124132 27 80 0.0 4.8 0.03 0.30 0.30 93 1012.3
20260903124032 27 80 0.0 4.8 0.05 0.30 0.30 93 1012.4
20260903123932 27 80 0.0 4.8 0.05 0.30 0.30 93 1012.3
20260903123832 27 80 0.0 6.4 0.05 0.30 0.30 93 1012.3
20260903123731 27 80 1.6 6.4 0.05 0.30 0.30 93 1012.4
20260903123632 27 80 3.2 6.4 0.05 0.30 0.30 93 1012.3
20260903123532 27 80 3.2 6.4 0.05 0.30 0.30 93 1012.3
20260903123432 27 79 3.2 6.4 0.05 0.30 0.30 93 1012.3
20260903123331 27 79 3.2 6.4 0.08 0.30 0.30 93 1012.3
20260903123230 27 79 3.2 6.4 0.08 0.30 0.30 93 1012.2
20260903123132 27 79 3.2 6.4 0.08 0.30 0.30 93 1012.2
20260903123031 27 79 4.8 6.4 0.08 0.30 0.30 93 1012.1
20260903122932 27 79 4.8 6.4 0.10 0.30 0.30 93 1012.2
20260903122831 27 102 3.2 6.4 0.10 0.30 0.30 93 1012.1
20260903122730 27 103 3.2 6.4 0.13 0.30 0.30 93 1012.0
20260903122631 27 103 4.8 6.4 0.13 0.30 0.30 93 1012.1
20260903122532 27 107 4.8 6.4 0.15 0.30 0.30 93 1012.1
20260903122431 27 103 3.2 6.4 0.15 0.30 0.30 93 1012.1
20260903122331 27 103 3.2 6.4 0.18 0.30 0.30 93 1012.0
20260903122231 27 97 3.2 6.4 0.18 0.30 0.30 93 1012.0
20260903122131 27 94 3.2 6.4 0.20 0.30 0.30 93 1012.0
20260903122031 27 137 1.6 6.4 0.23 0.30 0.30 93 1011.9
20260903121931 27 149 3.2 8.0 0.23 0.30 0.30 93 1011.8
20260903121833 27 161 3.2 9.7 0.25 0.30 0.30 93 1011.8
20260903121732 27 128 3.2 14.5 0.25 0.30 0.30 93 1011.8
20260903121633 27 127 3.2 14.5 0.25 0.30 0.30 93 1011.8
20260903121532 27 161 3.2 14.5 0.25 0.30 0.30 93 1011.7
20260903121432 27 147 3.2 14.5 0.28 0.30 0.30 93 1011.7
20260903121331 27 131 3.2 14.5 0.28 0.30 0.30 93 1011.7
20260903121231 27 138 3.2 14.5 0.28 0.30 0.30 93 1011.7
20260903121131 27 149 4.8 14.5 0.28 0.30 0.30 93 1011.6
20260903121031 27 135 6.4 14.5 0.28 0.30 0.30 93 1011.6
20260903120931 27 145 4.8 14.5 0.28 0.30 0.30 93 1011.6
20260903120831 27 148 3.2 14.5 0.30 0.30 0.30 93 1011.5
20260903120731 27 93 1.6 8.0 0.30 0.30 0.30 93 1011.6
20260903120632 27 93 1.6 8.0 0.30 0.30 0.30 93 1011.6
20260903120531 27 93 1.6 8.0 0.30 0.30 0.30 93 1011.6
20260903120432 27 110 1.6 8.0 0.30 0.30 0.30 93 1011.7
20260903120331 27 130 3.2 8.0 0.30 0.30 0.30 93 1011.7
20260903120233 27 130 3.2 8.0 0.30 0.30 0.30 93 1011.7
20260903120131 27 94 4.8 8.0 0.30 0.30 0.30 93 1011.8
20260903120032 27 94 4.8 8.0 0.30 0.30 0.30 93 1011.8
20260903115933 27 96 3.2 8.0 0.30 0.00 0.30 93 1011.8
20260903115832 27 48 3.2 8.0 0.30 0.00 0.28 93 1011.9
20260903115732 27 48 3.2 8.0 0.28 0.00 0.28 92 1011.9
20260903115631 27 47 4.8 8.0 0.28 0.00 0.28 92 1011.8
20260903115533 27 47 4.8 8.0 0.28 0.00 0.28 92 1011.9
20260903115431 27 47 4.8 8.0 0.28 0.00 0.28 92 1011.9
20260903115332 27 47 4.8 8.0 0.28 0.00 0.28 92 1011.9
20260903115230 27 47 6.4 8.0 0.28 0.00 0.28 92 1011.9
20260903115132 27 45 6.4 8.0 0.28 0.00 0.28 92 1011.9
20260903115032 27 41 6.4 8.0 0.28 0.00 0.28 92 1011.9
20260903114932 27 35 6.4 8.0 0.28 0.00 0.28 92 1011.9
20260903114830 27 45 6.4 8.0 0.28 0.00 0.28 92 1011.8
20260903114733 27 45 6.4 8.0 0.28 0.00 0.28 92 1011.8
20260903114632 27 45 4.8 6.4 0.28 0.00 0.28 92 1011.8
20260903114532 27 45 4.8 6.4 0.28 0.00 0.28 91 1011.8
20260903114431 27 45 4.8 6.4 0.28 0.00 0.28 91 1011.7
20260903114331 27 58 3.2 8.0 0.28 0.00 0.28 91 1011.8
20260903114227 27 120 3.2 8.0 0.28 0.00 0.25 91 1011.6
20260903114127 27 121 1.6 16.1 0.28 0.00 0.25 91 1011.6
20260903114025 27 121 1.6 16.1 0.25 0.00 0.25 91 1011.6
20260903113923 27 121 3.2 16.1 0.25 0.00 0.25 91 1011.6
20260903113822 27 121 3.2 16.1 0.25 0.00 0.25 91 1011.5
20260903113720 27 123 1.6 16.1 0.25 0.00 0.25 91 1011.6
20260903113619 27 121 3.2 16.1 0.25 0.00 0.25 91 1011.5
20260903113517 27 118 3.2 16.1 0.25 0.00 0.25 90 1011.6
20260903113415 27 162 4.8 16.1 0.25 0.00 0.25 90 1011.5
20260903113314 27 183 6.4 16.1 0.23 0.00 0.23 90 1011.6
20260903113212 27 179 6.4 16.1 0.23 0.00 0.23 90 1011.5
20260903113111 27 158 4.8 11.3 0.23 0.00 0.23 90 1011.5
20260903113012 27 183 4.8 17.7 0.20 0.00 0.20 90 1011.5
20260903112912 27 168 4.8 17.7 0.20 0.00 0.20 90 1011.5
20260903112812 28 166 4.8 17.7 0.20 0.00 0.20 89 1011.4
20260903112712 28 165 6.4 17.7 0.18 0.00 0.18 89 1011.5
20260903112613 28 178 8.0 17.7 0.18 0.00 0.15 89 1011.6
20260903112513 28 243 6.4 17.7 0.15 0.00 0.15 89 1011.6
20260903112412 28 193 6.4 17.7 0.13 0.00 0.13 89 1011.6
20260903112312 28 183 8.0 17.7 0.13 0.00 0.10 89 1011.6
20260903112211 28 195 9.7 17.7 0.13 0.00 0.10 89 1011.6
20260903112111 28 175 9.7 17.7 0.10 0.00 0.10 89 1011.6
20260903112013 28 178 8.0 16.1 0.08 0.00 0.08 89 1011.6
20260903111912 28 179 9.7 16.1 0.08 0.00 0.08 89 1011.6
20260903111812 28 171 11.3 16.1 0.05 0.00 0.05 88 1011.7
20260903111711 28 193 9.7 16.1 0.05 0.00 0.05 89 1011.7
20260903111611 28 230 6.4 16.1 0.05 0.00 0.05 89 1011.7
20260903111513 28 227 8.0 16.1 0.05 0.00 0.05 88 1011.7
20260903111411 28 0 6.4 16.1 0.03 0.00 0.03 88 1011.7
20260903111311 28 0 6.4 16.1 0.03 0.00 0.03 88 1011.7
20260903111211 28 237 9.7 16.1 0.03 0.00 0.03 88 1011.7
20260903111113 28 238 9.7 16.1 0.03 0.00 0.03 88 1011.7
20260903111011 28 190 9.7 16.1 0.03 0.00 0.03 88 1011.7
20260903110912 28 231 9.7 16.1 0.03 0.00 0.00 88 1011.7
20260903110812 28 257 8.0 11.3 0.00 0.00 0.00 88 1011.8
20260903110712 28 217 6.4 8.0 0.00 0.00 0.00 88 1011.7
20260903110611 28 171 4.8 8.0 0.00 0.00 0.00 88 1011.7
20260903110511 28 183 3.2 8.0 0.00 0.00 0.00 88 1011.7
20260903110412 28 180 3.2 8.0 0.00 0.00 0.00 88 1011.6
20260903110311 28 183 1.6 8.0 0.00 0.00 0.00 88 1011.6
20260903110211 28 134 1.6 8.0 0.00 0.00 0.00 88 1011.6
20260903110113 28 152 3.2 8.0 0.00 0.00 0.00 88 1011.7
20260903110012 28 196 4.8 8.0 0.00 0.00 0.00 88 1011.6
20260903105911 28 190 3.2 8.0 0.00 0.00 0.00 88 1011.6
20260903105812 28 161 1.6 8.0 0.00 0.00 0.00 88 1011.7
20260903105712 28 162 3.2 8.0 0.00 0.00 0.00 88 1011.6
20260903105611 28 188 4.8 8.0 0.00 0.00 0.00 88 1011.6
20260903105512 28 159 3.2 8.0 0.00 0.00 0.00 88 1011.6
20260903105412 28 87 3.2 8.0 0.00 0.00 0.00 88 1011.6
20260903105311 28 154 3.2 6.4 0.00 0.00 0.00 88 1011.6
20260903105211 28 162 3.2 6.4 0.00 0.00 0.00 88 1011.6
20260903105112 28 171 3.2 6.4 0.00 0.00 0.00 88 1011.5
20260903105011 28 189 3.2 8.0 0.00 0.00 0.00 88 1011.6
20260903104911 28 162 1.6 8.0 0.00 0.00 0.00 88 1011.6
20260903104811 28 166 1.6 8.0 0.00 0.00 0.00 88 1011.6
20260903104712 28 165 3.2 8.0 0.00 0.00 0.00 88 1011.6
20260903104611 28 171 3.2 8.0 0.00 0.00 0.00 88 1011.6
20260903104510 28 133 3.2 8.0 0.00 0.00 0.00 88 1011.6
20260903104410 28 165 3.2 8.0 0.00 0.00 0.00 88 1011.5
20260903104311 28 180 4.8 8.0 0.00 0.00 0.00 88 1011.5
20260903104211 28 140 4.8 8.0 0.00 0.00 0.00 88 1011.5
20260903104111 28 148 4.8 8.0 0.00 0.00 0.00 88 1011.5
20260903104012 28 104 3.2 8.0 0.00 0.00 0.00 88 1011.5
20260903103911 28 151 4.8 8.0 0.00 0.00 0.00 88 1011.4
20260903103811 28 134 4.8 8.0 0.00 0.00 0.00 88 1011.5
20260903103711 28 141 4.8 8.0 0.00 0.00 0.00 88 1011.5
20260903103611 28 149 4.8 8.0 0.00 0.00 0.00 88 1011.5
20260903103512 28 179 4.8 8.0 0.00 0.00 0.00 88 1011.4
20260903103411 28 144 4.8 8.0 0.00 0.00 0.00 88 1011.5
20260903103311 28 137 3.2 8.0 0.00 0.00 0.00 88 1011.5
20260903103211 28 128 3.2 8.0 0.00 0.00 0.00 88 1011.5
20260903103111 28 155 3.2 8.0 0.00 0.00 0.00 88 1011.5
20260903103012 28 157 3.2 8.0 0.00 0.00 0.00 88 1011.5
20260903102911 28 159 3.2 8.0 0.00 0.00 0.00 88 1011.4
20260903102809 28 140 1.6 8.0 0.00 0.00 0.00 88 1011.4
20260903102709 28 161 1.6 8.0 0.00 0.00 0.00 88 1011.4
20260903102612 28 158 3.2 8.0 0.00 0.00 0.00 88 1011.4
20260903102511 28 157 3.2 8.0 0.00 0.00 0.00 88 1011.4
20260903102411 28 157 1.6 8.0 0.00 0.00 0.00 88 1011.5
20260903102311 28 144 3.2 8.0 0.00 0.00 0.00 87 1011.5
20260903102211 28 149 3.2 8.0 0.00 0.00 0.00 87 1011.5
20260903102111 28 133 3.2 9.7 0.00 0.00 0.00 87 1011.4
20260903102011 28 130 3.2 9.7 0.00 0.00 0.00 87 1011.4
20260903101912 28 141 1.6 9.7 0.00 0.00 0.00 87 1011.4
20260903101811 28 141 1.6 9.7 0.00 0.00 0.00 87 1011.4
20260903101710 28 158 3.2 9.7 0.00 0.00 0.00 87 1011.4
20260903101611 28 169 3.2 9.7 0.00 0.00 0.00 87 1011.4
20260903101511 28 94 1.6 11.3 0.00 0.00 0.00 87 1011.4
20260903101408 28 128 3.2 11.3 0.00 0.00 0.00 87 1011.4
20260903101304 28 134 4.8 11.3 0.00 0.00 0.00 87 1011.4
20260903101203 28 168 3.2 11.3 0.00 0.00 0.00 87 1011.3
20260903101102 28 148 4.8 11.3 0.00 0.00 0.00 87 1011.3
20260903101004 28 114 4.8 11.3 0.00 0.00 0.00 87 1011.3
20260903100902 28 173 4.8 11.3 0.00 0.00 0.00 87 1011.4
20260903100803 28 147 3.2 11.3 0.00 0.00 0.00 87 1011.3
20260903100703 28 130 4.8 11.3 0.00 0.00 0.00 87 1011.4
20260903100603 28 125 4.8 11.3 0.00 0.00 0.00 87 1011.4
20260903100502 28 172 4.8 9.7 0.00 0.00 0.00 87 1011.3
20260903100402 28 179 3.2 9.7 0.00 0.00 0.00 87 1011.3
20260903100302 28 185 3.2 9.7 0.00 0.00 0.00 87 1011.3
20260903100202 28 128 4.8 11.3 0.00 0.00 0.00 87 1011.3
20260903100004 28 168 6.4 11.3 0.00 0.00 0.00 87 1011.3
20260903095901 28 148 4.8 11.3 0.00 0.00 0.00 87 1011.2
20260903095801 28 199 6.4 11.3 0.00 0.00 0.00 87 1011.3
20260903095703 28 183 4.8 11.3 0.00 0.00 0.00 87 1011.3
20260903095603 28 178 4.8 11.3 0.00 0.00 0.00 87 1011.2
20260903095502 28 192 3.2 11.3 0.00 0.00 0.00 86 1011.3
20260903095404 28 193 4.8 11.3 0.00 0.00 0.00 86 1011.2
20260903095305 28 140 4.8 11.3 0.00 0.00 0.00 86 1011.3
20260903095202 28 207 4.8 11.3 0.00 0.00 0.00 87 1011.2
20260903095102 28 144 6.4 11.3 0.00 0.00 0.00 87 1011.2
20260903095005 28 199 4.8 11.3 0.00 0.00 0.00 87 1011.2
20260903094904 28 186 4.8 11.3 0.00 0.00 0.00 87 1011.3
20260903094801 28 169 4.8 11.3 0.00 0.00 0.00 87 1011.3
20260903094659 28 182 3.2 11.3 0.00 0.00 0.00 87 1011.2
20260903094557 28 169 6.4 11.3 0.00 0.00 0.00 87 1011.2
20260903094456 28 186 6.4 11.3 0.00 0.00 0.00 86 1011.3
20260903094355 28 206 4.8 11.3 0.00 0.00 0.00 86 1011.2
20260903094252 28 125 6.4 9.7 0.00 0.00 0.00 86 1011.2
20260903094151 28 185 6.4 9.7 0.00 0.00 0.00 86 1011.2
20260903094050 28 144 4.8 17.7 0.00 0.00 0.00 86 1011.2
20260903093949 28 141 4.8 17.7 0.00 0.00 0.00 86 1011.3
20260903093846 28 131 4.8 17.7 0.00 0.00 0.00 86 1011.3
20260903093746 28 130 3.2 17.7 0.00 0.00 0.00 86 1011.2
20260903093643 28 111 4.8 17.7 0.00 0.00 0.00 86 1011.2
20260903093542 28 166 4.8 17.7 0.00 0.00 0.00 86 1011.3
20260903093441 28 206 4.8 17.7 0.00 0.00 0.00 86 1011.2
20260903093339 28 169 3.2 17.7 0.00 0.00 0.00 86 1011.3
20260903093234 28 161 6.4 17.7 0.00 0.00 0.00 86 1011.4
20260903093132 28 158 9.7 17.7 0.00 0.00 0.00 86 1011.2
20260903093032 28 128 6.4 14.5 0.00 0.00 0.00 86 1011.3
20260903092932 28 134 4.8 11.3 0.00 0.00 0.00 86 1011.2
20260903092831 28 154 4.8 11.3 0.00 0.00 0.00 87 1011.3
20260903092732 28 171 6.4 11.3 0.00 0.00 0.00 86 1011.3
20260903092631 28 179 4.8 11.3 0.00 0.00 0.00 86 1011.3
20260903092532 28 182 6.4 11.3 0.00 0.00 0.00 87 1011.3
20260903092431 28 168 8.0 11.3 0.00 0.00 0.00 87 1011.3
20260903092331 28 173 6.4 11.3 0.00 0.00 0.00 87 1011.4
20260903092232 28 118 4.8 11.3 0.00 0.00 0.00 87 1011.3
20260903092133 28 140 4.8 11.3 0.00 0.00 0.00 87 1011.3
20260903092031 28 190 6.4 14.5 0.00 0.00 0.00 87 1011.3
20260903091931 28 182 6.4 14.5 0.00 0.00 0.00 87 1011.3
20260903091831 28 190 4.8 14.5 0.00 0.00 0.00 87 1011.3
20260903091731 28 165 6.4 14.5 0.00 0.00 0.00 87 1011.4
20260903091631 28 172 6.4 14.5 0.00 0.00 0.00 87 1011.4
20260903091532 28 179 4.8 16.1 0.00 0.00 0.00 87 1011.3
20260903091433 28 165 4.8 16.1 0.00 0.00 0.00 87 1011.3
20260903091330 28 127 6.4 16.1 0.00 0.00 0.00 87 1011.4
20260903091230 28 227 6.4 16.1 0.00 0.00 0.00 87 1011.3
20260903091131 28 175 6.4 16.1 0.00 0.00 0.00 87 1011.4
20260903091031 28 137 8.0 16.1 0.00 0.00 0.00 87 1011.4
20260903090931 28 173 8.0 16.1 0.00 0.00 0.00 87 1011.4
20260903090833 28 179 4.8 16.1 0.00 0.00 0.00 87 1011.4
20260903090732 28 120 6.4 16.1 0.00 0.00 0.00 87 1011.3
20260903090631 28 166 8.0 16.1 0.00 0.00 0.00 87 1011.4
20260903090532 28 193 6.4 11.3 0.00 0.00 0.00 87 1011.4
20260903090431 28 145 6.4 11.3 0.00 0.00 0.00 87 1011.4
20260903090331 28 107 4.8 11.3 0.00 0.00 0.00 87 1011.4
20260903090230 28 125 3.2 11.3 0.00 0.00 0.00 87 1011.3
20260903090132 28 130 4.8 11.3 0.00 0.00 0.00 87 1011.4
20260903090032 28 152 6.4 11.3 0.00 0.00 0.00 87 1011.3
20260903085932 28 103 4.8 11.3 0.00 0.00 0.00 87 1011.3
20260903085833 28 144 4.8 11.3 0.00 0.00 0.00 87 1011.3
20260903085731 28 138 4.8 14.5 0.00 0.00 0.00 87 1011.3
20260903085631 28 135 4.8 14.5 0.00 0.00 0.00 87 1011.3
20260903085531 28 166 6.4 14.5 0.00 0.00 0.00 87 1011.3
20260903085432 28 147 6.4 14.5 0.00 0.00 0.00 87 1011.3
20260903085332 28 127 4.8 14.5 0.00 0.00 0.00 87 1011.3
20260903085232 28 127 4.8 14.5 0.00 0.00 0.00 87 1011.3
20260903085132 28 127 4.8 14.5 0.00 0.00 0.00 87 1011.2
20260903085032 28 127 4.8 16.1 0.00 0.00 0.00 87 1011.2
20260903084923 28 164 8.0 16.1 0.00 0.00 0.00 87 1011.2
20260903084823 28 118 6.4 16.1 0.00 0.00 0.00 87 1011.2
20260903084721 28 173 4.8 16.1 0.00 0.00 0.00 87 1011.3
20260903084619 28 178 4.8 16.1 0.00 0.00 0.00 87 1011.2
20260903084519 28 133 3.2 16.1 0.00 0.00 0.00 87 1011.2
20260903084416 28 157 4.8 16.1 0.00 0.00 0.00 87 1011.3
20260903084315 28 113 6.4 16.1 0.00 0.00 0.00 87 1011.2
20260903084215 28 116 6.4 16.1 0.00 0.00 0.00 87 1011.3
20260903084114 28 149 6.4 11.3 0.00 0.00 0.00 87 1011.3
20260903084013 28 234 6.4 11.3 0.00 0.00 0.00 87 1011.2
20260903083911 28 141 4.8 14.5 0.00 0.00 0.00 87 1011.2
20260903083809 28 140 3.2 14.5 0.00 0.00 0.00 87 1011.2
20260903083708 28 142 1.6 14.5 0.00 0.00 0.00 87 1011.2
20260903083608 28 164 3.2 16.1 0.00 0.00 0.00 87 1011.2
20260903083508 28 125 6.4 16.1 0.00 0.00 0.00 87 1011.2
20260903083408 28 188 6.4 16.1 0.00 0.00 0.00 87 1011.2
20260903083308 28 157 6.4 16.1 0.00 0.00 0.00 87 1011.3
20260903083209 28 149 6.4 16.1 0.00 0.00 0.00 87 1011.3
20260903083108 28 78 6.4 16.1 0.00 0.00 0.00 87 1011.2
20260903083008 28 159 3.2 16.1 0.00 0.00 0.00 87 1011.2
20260903082908 28 148 4.8 16.1 0.00 0.00 0.00 87 1011.3
20260903082808 28 138 8.0 16.1 0.00 0.00 0.00 87 1011.3
20260903082707 28 210 6.4 16.1 0.00 0.00 0.00 87 1011.3
20260903082607 28 175 3.2 11.3 0.00 0.00 0.00 87 1011.2
20260903082510 28 175 3.2 11.3 0.00 0.00 0.00 87 1011.3
20260903082407 28 171 4.8 11.3 0.00 0.00 0.00 87 1011.2
20260903082310 28 204 4.8 11.3 0.00 0.00 0.00 87 1011.2
20260903082207 28 123 4.8 11.3 0.00 0.00 0.00 87 1011.3
20260903082110 28 178 4.8 11.3 0.00 0.00 0.00 87 1011.3
20260903082009 28 131 6.4 11.3 0.00 0.00 0.00 87 1011.2
20260903081908 28 164 6.4 11.3 0.00 0.00 0.00 87 1011.2
20260903081808 28 199 6.4 11.3 0.00 0.00 0.00 87 1011.2
20260903081707 28 173 6.4 11.3 0.00 0.00 0.00 87 1011.2
20260903081607 28 161 6.4 11.3 0.00 0.00 0.00 86 1011.2
20260903081508 28 134 4.8 11.3 0.00 0.00 0.00 86 1011.2
20260903081410 28 195 3.2 11.3 0.00 0.00 0.00 86 1011.2
20260903081307 28 157 6.4 11.3 0.00 0.00 0.00 86 1011.2
20260903081207 28 164 6.4 11.3 0.00 0.00 0.00 86 1011.2
20260903081108 28 176 3.2 14.5 0.00 0.00 0.00 86 1011.2
20260903081004 28 147 3.2 14.5 0.00 0.00 0.00 86 1011.1
20260903080902 28 149 4.8 14.5 0.00 0.00 0.00 86 1011.2
20260903080804 28 152 3.2 14.5 0.00 0.00 0.00 86 1011.2
20260903080702 28 237 6.4 14.5 0.00 0.00 0.00 86 1011.1
20260903080603 28 154 6.4 16.1 0.00 0.00 0.00 86 1011.2
20260903080503 28 155 6.4 16.1 0.00 0.00 0.00 86 1011.1
20260903080404 28 166 4.8 16.1 0.00 0.00 0.00 86 1011.2
20260903080302 28 186 6.4 16.1 0.00 0.00 0.00 86 1011.2
20260903080203 28 176 6.4 16.1 0.00 0.00 0.00 86 1011.1
20260903080103 28 175 8.0 16.1 0.00 0.00 0.00 86 1011.1
20260903080003 28 193 8.0 19.3 0.00 0.00 0.00 86 1011.1
20260903075903 28 189 8.0 19.3 0.00 0.00 0.00 86 1011.1
20260903075802 28 186 9.7 19.3 0.00 0.00 0.00 86 1011.1
20260903075704 28 176 9.7 19.3 0.00 0.00 0.00 86 1011.1
20260903075602 28 176 9.7 19.3 0.00 0.00 0.00 86 1011.1
20260903075502 28 178 9.7 19.3 0.00 0.00 0.00 86 1011.2
20260903075403 28 195 6.4 19.3 0.00 0.00 0.00 86 1011.2
20260903075306 28 158 6.4 19.3 0.00 0.00 0.00 86 1011.1
20260903075203 28 168 9.7 19.3 0.00 0.00 0.00 86 1011.2
20260903075103 28 193 9.7 19.3 0.00 0.00 0.00 86 1011.2
20260903075005 28 141 9.7 17.7 0.00 0.00 0.00 86 1011.1
20260903074902 28 171 6.4 17.7 0.00 0.00 0.00 86 1011.2
20260903074802 28 199 4.8 14.5 0.00 0.00 0.00 86 1011.1
20260903074704 28 189 6.4 17.7 0.00 0.00 0.00 86 1011.1
20260903074601 28 189 8.0 17.7 0.00 0.00 0.00 86 1011.1
20260903074503 28 183 6.4 17.7 0.00 0.00 0.00 86 1011.1
20260903074403 28 183 6.4 17.7 0.00 0.00 0.00 86 1011.1
20260903074303 28 161 6.4 17.7 0.00 0.00 0.00 86 1011.1
20260903074202 28 123 6.4 17.7 0.00 0.00 0.00 86 1011.1
20260903074102 28 155 8.0 17.7 0.00 0.00 0.00 86 1011.2
20260903074004 28 157 6.4 17.7 0.00 0.00 0.00 86 1011.1
20260903073902 28 109 6.4 17.7 0.00 0.00 0.00 86 1011.0
20260903073802 28 142 6.4 17.7 0.00 0.00 0.00 86 1011.1
20260903073704 28 178 4.8 14.5 0.00 0.00 0.00 86 1011.1
20260903073602 28 135 6.4 14.5 0.00 0.00 0.00 86 1011.1
20260903073501 28 190 8.0 17.7 0.00 0.00 0.00 86 1011.1
20260903073402 28 202 8.0 17.7 0.00 0.00 0.00 86 1011.2
20260903073302 28 161 8.0 19.3 0.00 0.00 0.00 86 1011.1
20260903073202 28 226 9.7 19.3 0.00 0.00 0.00 86 1011.1
20260903073103 28 180 6.4 20.9 0.00 0.00 0.00 86 1011.1
20260903073003 28 193 6.4 20.9 0.00 0.00 0.00 86 1011.2
20260903072903 28 193 6.4 20.9 0.00 0.00 0.00 86 1011.2
20260903072803 28 193 6.4 20.9 0.00 0.00 0.00 86 1011.1
20260903072703 28 200 6.4 20.9 0.00 0.00 0.00 86 1011.2
20260903072603 28 159 6.4 20.9 0.00 0.00 0.00 86 1011.1
20260903072502 28 247 6.4 20.9 0.00 0.00 0.00 86 1011.1
20260903072402 28 151 9.7 20.9 0.00 0.00 0.00 86 1011.1
20260903072306 28 151 11.3 20.9 0.00 0.00 0.00 86 1011.2
20260903072202 28 120 12.9 20.9 0.00 0.00 0.00 86 1011.1
20260903072103 28 173 11.3 20.9 0.00 0.00 0.00 86 1011.2
20260903072004 28 195 9.7 20.9 0.00 0.00 0.00 86 1011.2
20260903071903 28 200 11.3 17.7 0.00 0.00 0.00 86 1011.1
20260903071802 28 175 9.7 17.7 0.00 0.00 0.00 86 1011.1
20260903071702 28 176 9.7 16.1 0.00 0.00 0.00 86 1011.1
20260903071603 28 149 9.7 17.7 0.00 0.00 0.00 86 1011.1
20260903071502 28 197 9.7 17.7 0.00 0.00 0.00 86 1011.2
20260903071401 28 224 9.7 17.7 0.00 0.00 0.00 86 1011.2
20260903071302 28 185 6.4 17.7 0.00 0.00 0.00 86 1011.1
20260903071203 28 86 6.4 17.7 0.00 0.00 0.00 86 1011.2
20260903071101 28 158 6.4 17.7 0.00 0.00 0.00 86 1011.2
20260903071004 28 240 6.4 17.7 0.00 0.00 0.00 86 1011.2
20260903070903 28 138 6.4 17.7 0.00 0.00 0.00 86 1011.1
20260903070802 28 165 9.7 17.7 0.00 0.00 0.00 86 1011.2
20260903070703 28 131 9.7 17.7 0.00 0.00 0.00 86 1011.2
20260903070604 28 147 8.0 17.7 0.00 0.00 0.00 86 1011.3
20260903070502 28 193 6.4 17.7 0.00 0.00 0.00 86 1011.2
20260903070402 28 203 8.0 17.7 0.00 0.00 0.00 86 1011.2
20260903070304 28 164 9.7 17.7 0.00 0.00 0.00 86 1011.2
20260903070203 28 168 9.7 17.7 0.00 0.00 0.00 86 1011.2
20260903070104 28 169 6.4 17.7 0.00 0.00 0.00 86 1011.2
20260903070001 28 134 6.4 17.7 0.00 0.00 0.00 86 1011.3
20260903065903 28 147 8.0 20.9 0.00 0.00 0.00 86 1011.2
20260903065802 28 210 6.4 20.9 0.00 0.00 0.00 86 1011.3
20260903065702 28 168 6.4 20.9 0.00 0.00 0.00 86 1011.4
20260903065604 28 123 6.4 20.9 0.00 0.00 0.00 86 1011.4
20260903065503 28 142 8.0 20.9 0.00 0.00 0.00 86 1011.4
20260903065401 28 204 9.7 20.9 0.00 0.00 0.00 86 1011.4
20260903065305 28 193 9.7 20.9 0.00 0.00 0.00 86 1011.4
20260903065204 28 220 9.7 20.9 0.00 0.00 0.00 86 1011.5
20260903065102 28 168 9.7 20.9 0.00 0.00 0.00 86 1011.5
20260903065002 28 203 9.7 20.9 0.00 0.00 0.00 86 1011.5
20260903064903 28 214 6.4 14.5 0.00 0.00 0.00 86 1011.5
20260903064802 28 164 6.4 14.5 0.00 0.00 0.00 86 1011.5
20260903064701 28 226 8.0 14.5 0.00 0.00 0.00 86 1011.5
20260903064602 28 164 4.8 14.5 0.00 0.00 0.00 86 1011.6
20260903064504 28 97 4.8 14.5 0.00 0.00 0.00 86 1011.5
20260903064403 28 157 6.4 17.7 0.00 0.00 0.00 86 1011.5
20260903064303 28 124 4.8 17.7 0.00 0.00 0.00 86 1011.5
20260903064203 28 161 6.4 17.7 0.00 0.00 0.00 86 1011.5
20260903064102 28 159 8.0 17.7 0.00 0.00 0.00 86 1011.5
20260903064002 28 202 8.0 17.7 0.00 0.00 0.00 86 1011.6
20260903063904 28 176 6.4 17.7 0.00 0.00 0.00 86 1011.5
20260903063802 28 113 4.8 17.7 0.00 0.00 0.00 86 1011.5
20260903063702 28 166 6.4 17.7 0.00 0.00 0.00 86 1011.5
20260903063602 28 148 9.7 17.7 0.00 0.00 0.00 86 1011.6
20260903063504 28 180 8.0 17.7 0.00 0.00 0.00 86 1011.5
20260903063403 28 172 6.4 14.5 0.00 0.00 0.00 86 1011.6
20260903063303 28 164 6.4 14.5 0.00 0.00 0.00 86 1011.6
20260903063203 28 151 6.4 14.5 0.00 0.00 0.00 86 1011.5
20260903063103 28 165 8.0 14.5 0.00 0.00 0.00 86 1011.6
20260903063003 28 135 6.4 14.5 0.00 0.00 0.00 86 1011.5
20260903062903 28 183 6.4 14.5 0.00 0.00 0.00 86 1011.5
20260903062802 28 141 6.4 14.5 0.00 0.00 0.00 85 1011.6
20260903062702 28 96 6.4 14.5 0.00 0.00 0.00 85 1011.6
20260903062601 28 183 6.4 14.5 0.00 0.00 0.00 85 1011.5
20260903062504 28 82 6.4 14.5 0.00 0.00 0.00 85 1011.5
20260903062402 28 114 8.0 14.5 0.00 0.00 0.00 85 1011.6
20260903062305 28 165 6.4 14.5 0.00 0.00 0.00 85 1011.5
20260903062204 28 141 6.4 14.5 0.00 0.00 0.00 85 1011.5
20260903062102 28 69 6.4 14.5 0.00 0.00 0.00 85 1011.5
20260903062004 28 173 6.4 14.5 0.00 0.00 0.00 85 1011.7
20260903061902 28 227 6.4 14.5 0.00 0.00 0.00 85 1011.7
20260903061802 28 166 6.4 14.5 0.00 0.00 0.00 85 1011.7
20260903061702 28 183 6.4 14.5 0.00 0.00 0.00 85 1011.7
20260903061602 28 192 8.0 14.5 0.00 0.00 0.00 85 1011.8
20260903061505 28 154 8.0 11.3 0.00 0.00 0.00 85 1011.8
20260903061402 28 166 6.4 9.7 0.00 0.00 0.00 85 1011.9
20260903061302 28 206 6.4 9.7 0.00 0.00 0.00 85 1011.9
20260903061203 28 192 6.4 9.7 0.00 0.00 0.00 85 1012.0
20260903061102 28 121 6.4 9.7 0.00 0.00 0.00 85 1011.9
20260903061003 28 197 3.2 9.7 0.00 0.00 0.00 85 1012.0
20260903060903 29 197 1.6 9.7 0.00 0.00 0.00 85 1012.1
20260903060803 29 219 3.2 9.7 0.00 0.00 0.00 85 1012.2
20260903060702 29 148 3.2 9.7 0.00 0.00 0.00 85 1012.1
20260903060603 29 202 3.2 9.7 0.00 0.00 0.00 85 1012.1
20260903060503 29 185 4.8 9.7 0.00 0.00 0.00 85 1012.1
20260903060403 29 197 3.2 9.7 0.00 0.00 0.00 85 1012.2
20260903060303 29 80 3.2 9.7 0.00 0.00 0.00 85 1012.2
20260903060202 29 188 3.2 9.7 0.00 0.00 0.00 85 1012.3
20260903060104 29 149 4.8 9.7 0.00 0.00 0.00 85 1012.3
20260903060003 29 200 4.8 9.7 0.00 0.00 0.00 85 1012.3
20260903055902 29 186 4.8 9.7 0.00 0.00 0.00 85 1012.3
20260903055803 29 164 3.2 9.7 0.00 0.00 0.00 85 1012.3
20260903055702 29 185 4.8 11.3 0.00 0.00 0.00 85 1012.3
20260903055603 29 203 4.8 11.3 0.00 0.00 0.00 85 1012.3
20260903055502 29 180 6.4 11.3 0.00 0.00 0.00 85 1012.3
20260903055403 29 147 6.4 16.1 0.00 0.00 0.00 85 1012.4
20260903055306 29 183 6.4 16.1 0.00 0.00 0.00 85 1012.3
20260903055202 29 189 6.4 16.1 0.00 0.00 0.00 85 1012.3
20260903055103 29 180 4.8 16.1 0.00 0.00 0.00 85 1012.4
20260903055002 29 188 4.8 16.1 0.00 0.00 0.00 85 1012.3
20260903054902 29 193 6.4 16.1 0.00 0.00 0.00 85 1012.4
20260903054803 29 189 6.4 16.1 0.00 0.00 0.00 85 1012.4
20260903054702 29 149 8.0 16.1 0.00 0.00 0.00 85 1012.4
20260903054602 29 152 8.0 16.1 0.00 0.00 0.00 85 1012.4
20260903054503 29 175 8.0 16.1 0.00 0.00 0.00 85 1012.5
20260903054405 29 172 8.0 16.1 0.00 0.00 0.00 85 1012.5
20260903054303 29 186 6.4 16.1 0.00 0.00 0.00 85 1012.5
20260903054202 29 166 6.4 16.1 0.00 0.00 0.00 85 1012.5
20260903054103 29 188 8.0 19.3 0.00 0.00 0.00 85 1012.5
20260903054003 29 176 8.0 19.3 0.00 0.00 0.00 85 1012.5
20260903053902 29 199 6.4 19.3 0.00 0.00 0.00 85 1012.5
20260903053803 29 223 4.8 19.3 0.00 0.00 0.00 85 1012.6
20260903053703 29 207 6.4 19.3 0.00 0.00 0.00 85 1012.5
20260903053602 29 175 6.4 19.3 0.00 0.00 0.00 85 1012.5
20260903053504 29 224 6.4 19.3 0.00 0.00 0.00 85 1012.6
20260903053405 29 227 6.4 19.3 0.00 0.00 0.00 85 1012.6
20260903053302 29 183 9.7 19.3 0.00 0.00 0.00 85 1012.5
20260903053202 29 195 9.7 19.3 0.00 0.00 0.00 85 1012.5
20260903053102 29 214 8.0 14.5 0.00 0.00 0.00 85 1012.4
20260903053003 29 183 8.0 14.5 0.00 0.00 0.00 85 1012.5
20260903052902 29 197 6.4 14.5 0.00 0.00 0.00 85 1012.5
20260903052802 29 172 4.8 16.1 0.00 0.00 0.00 85 1012.3
20260903052703 29 197 3.2 16.1 0.00 0.00 0.00 85 1012.4
20260903052603 29 183 3.2 16.1 0.00 0.00 0.00 85 1012.4
20260903052504 29 165 4.8 16.1 0.00 0.00 0.00 85 1012.4
20260903052403 29 178 4.8 16.1 0.00 0.00 0.00 85 1012.4
20260903052306 29 162 4.8 16.1 0.00 0.00 0.00 85 1012.4
20260903052202 29 165 4.8 16.1 0.00 0.00 0.00 85 1012.4
20260903052102 29 164 4.8 16.1 0.00 0.00 0.00 85 1012.4
20260903052003 29 186 6.4 16.1 0.00 0.00 0.00 85 1012.4
20260903051902 29 133 9.7 16.1 0.00 0.00 0.00 85 1012.4
20260903051802 29 171 8.0 16.1 0.00 0.00 0.00 85 1012.5
20260903051703 29 148 6.4 14.5 0.00 0.00 0.00 85 1012.4
20260903051602 29 207 6.4 14.5 0.00 0.00 0.00 85 1012.5
20260903051500 29 166 6.4 14.5 0.00 0.00 0.00 85 1012.4
20260903051358 29 186 6.4 14.5 0.00 0.00 0.00 85 1012.4
20260903051257 29 182 6.4 11.3 0.00 0.00 0.00 85 1012.4
20260903051155 29 111 6.4 11.3 0.00 0.00 0.00 85 1012.4
20260903051054 29 197 4.8 11.3 0.00 0.00 0.00 85 1012.4
20260903050954 29 188 3.2 11.3 0.00 0.00 0.00 85 1012.4
20260903050851 29 202 6.4 11.3 0.00 0.00 0.00 85 1012.3
20260903050751 29 224 6.4 11.3 0.00 0.00 0.00 85 1012.4
20260903050648 29 190 6.4 11.3 0.00 0.00 0.00 85 1012.4
20260903050547 29 176 6.4 11.3 0.00 0.00 0.00 85 1012.4
20260903050443 29 203 4.8 11.3 0.00 0.00 0.00 85 1012.4
20260903050340 29 192 4.8 11.3 0.00 0.00 0.00 85 1012.4
20260903050237 29 189 4.8 14.5 0.00 0.00 0.00 85 1012.4
20260903050137 29 206 4.8 14.5 0.00 0.00 0.00 85 1012.4
20260903050035 29 180 6.4 14.5 0.00 0.00 0.00 85 1012.4
20260903045932 29 189 6.4 14.5 0.00 0.00 0.00 85 1012.5
20260903045831 29 182 6.4 14.5 0.00 0.00 0.00 85 1012.5
20260903045731 29 155 4.8 14.5 0.00 0.00 0.00 85 1012.4
20260903045631 29 207 3.2 17.7 0.00 0.00 0.00 85 1012.4
20260903045532 29 175 6.4 17.7 0.00 0.00 0.00 85 1012.5
20260903045431 29 185 8.0 17.7 0.00 0.00 0.00 85 1012.4
20260903045331 29 169 6.4 17.7 0.00 0.00 0.00 85 1012.4
20260903045233 29 171 4.8 17.7 0.00 0.00 0.00 85 1012.4
20260903045131 29 159 6.4 17.7 0.00 0.00 0.00 85 1012.4
20260903045031 29 149 8.0 17.7 0.00 0.00 0.00 85 1012.4
20260903044931 29 85 6.4 17.7 0.00 0.00 0.00 85 1012.5
20260903044832 29 206 8.0 17.7 0.00 0.00 0.00 85 1012.5
20260903044730 29 203 9.7 17.7 0.00 0.00 0.00 85 1012.5
20260903044629 29 197 6.4 14.5 0.00 0.00 0.00 85 1012.5
20260903044527 29 154 3.2 14.5 0.00 0.00 0.00 85 1012.5
20260903044426 29 165 4.8 19.3 0.00 0.00 0.00 85 1012.5
20260903044325 29 186 6.4 19.3 0.00 0.00 0.00 85 1012.5
20260903044224 29 196 4.8 19.3 0.00 0.00 0.00 85 1012.4
20260903044123 29 219 4.8 19.3 0.00 0.00 0.00 86 1012.5
20260903044019 29 193 6.4 19.3 0.00 0.00 0.00 85 1012.4
20260903043918 29 152 6.4 19.3 0.00 0.00 0.00 86 1012.4
20260903043818 29 149 4.8 19.3 0.00 0.00 0.00 86 1012.4
20260903043716 29 185 6.4 19.3 0.00 0.00 0.00 86 1012.4
20260903043615 29 197 9.7 19.3 0.00 0.00 0.00 86 1012.4
20260903043512 29 213 9.7 19.3 0.00 0.00 0.00 86 1012.4
20260903043410 29 140 8.0 16.1 0.00 0.00 0.00 86 1012.4
20260903043305 29 123 6.4 14.5 0.00 0.00 0.00 86 1012.3
20260903043204 29 154 4.8 9.7 0.00 0.00 0.00 86 1012.4
20260903043103 29 130 4.8 9.7 0.00 0.00 0.00 86 1012.4
20260903043005 29 161 4.8 9.7 0.00 0.00 0.00 86 1012.4
20260903042904 29 162 4.8 9.7 0.00 0.00 0.00 86 1012.4
20260903042803 29 121 4.8 14.5 0.00 0.00 0.00 86 1012.4
20260903042703 29 116 4.8 14.5 0.00 0.00 0.00 86 1012.3
20260903042605 29 127 4.8 14.5 0.00 0.00 0.00 86 1012.4
20260903042504 29 114 3.2 14.5 0.00 0.00 0.00 86 1012.4
20260903042401 29 118 3.2 14.5 0.00 0.00 0.00 86 1012.4
20260903042305 29 149 3.2 16.1 0.00 0.00 0.00 86 1012.4
20260903042203 29 109 3.2 16.1 0.00 0.00 0.00 86 1012.4
20260903042102 29 131 4.8 16.1 0.00 0.00 0.00 86 1012.4
20260903042003 29 99 6.4 16.1 0.00 0.00 0.00 86 1012.5
20260903041903 29 159 6.4 16.1 0.00 0.00 0.00 86 1012.4
20260903041803 29 155 4.8 16.1 0.00 0.00 0.00 85 1012.5
20260903041702 29 89 6.4 16.1 0.00 0.00 0.00 85 1012.4
20260903041602 29 34 8.0 16.1 0.00 0.00 0.00 85 1012.4
20260903041503 29 141 6.4 16.1 0.00 0.00 0.00 85 1012.5
20260903041402 29 134 6.4 16.1 0.00 0.00 0.00 85 1012.5
20260903041302 29 189 6.4 16.1 0.00 0.00 0.00 85 1012.5
20260903041204 29 161 4.8 16.1 0.00 0.00 0.00 85 1012.4
20260903041102 29 161 4.8 16.1 0.00 0.00 0.00 85 1012.4
20260903041002 29 178 4.8 16.1 0.00 0.00 0.00 85 1012.4
20260903040902 29 134 6.4 16.1 0.00 0.00 0.00 85 1012.5
20260903040804 29 213 6.4 16.1 0.00 0.00 0.00 85 1012.4
20260903040702 29 192 8.0 16.1 0.00 0.00 0.00 85 1012.3
20260903040602 29 118 6.4 16.1 0.00 0.00 0.00 85 1012.4
20260903040504 29 109 6.4 16.1 0.00 0.00 0.00 85 1012.4
20260903040402 29 142 8.0 16.1 0.00 0.00 0.00 85 1012.3
20260903040302 29 102 8.0 16.1 0.00 0.00 0.00 85 1012.3
20260903040203 29 140 8.0 16.1 0.00 0.00 0.00 85 1012.4
20260903040103 29 207 8.0 16.1 0.00 0.00 0.00 85 1012.4
20260903040003 29 159 8.0 16.1 0.00 0.00 0.00 85 1012.4
20260903035902 29 109 6.4 17.7 0.00 0.00 0.00 85 1012.3
20260903035802 29 175 6.4 17.7 0.00 0.00 0.00 85 1012.4
20260903035702 29 131 6.4 17.7 0.00 0.00 0.00 85 1012.3
20260903035603 29 149 6.4 17.7 0.00 0.00 0.00 85 1012.4
20260903035504 29 145 8.0 17.7 0.00 0.00 0.00 85 1012.3
20260903035403 29 110 8.0 17.7 0.00 0.00 0.00 85 1012.3
20260903035306 29 186 6.4 17.7 0.00 0.00 0.00 85 1012.3
20260903035202 29 165 6.4 17.7 0.00 0.00 0.00 85 1012.3
20260903035103 29 103 6.4 17.7 0.00 0.00 0.00 85 1012.4
20260903035004 29 173 4.8 17.7 0.00 0.00 0.00 85 1012.3
20260903034903 29 149 6.4 11.3 0.00 0.00 0.00 85 1012.3
20260903034803 29 82 4.8 11.3 0.00 0.00 0.00 85 1012.3
20260903034702 29 142 4.8 11.3 0.00 0.00 0.00 85 1012.3
20260903034603 29 140 4.8 16.1 0.00 0.00 0.00 85 1012.3
20260903034504 29 124 6.4 16.1 0.00 0.00 0.00 85 1012.4
20260903034402 29 171 6.4 16.1 0.00 0.00 0.00 85 1012.4
20260903034302 29 113 6.4 16.1 0.00 0.00 0.00 85 1012.3
20260903034202 29 120 6.4 16.1 0.00 0.00 0.00 85 1012.4
20260903034102 29 130 4.8 16.1 0.00 0.00 0.00 85 1012.4
20260903034003 29 120 4.8 16.1 0.00 0.00 0.00 85 1012.3
20260903033902 29 145 6.4 16.1 0.00 0.00 0.00 85 1012.3
20260903033803 29 107 6.4 16.1 0.00 0.00 0.00 85 1012.3
20260903033704 29 127 6.4 16.1 0.00 0.00 0.00 85 1012.3
20260903033603 29 110 6.4 16.1 0.00 0.00 0.00 85 1012.3
20260903033503 29 103 6.4 16.1 0.00 0.00 0.00 85 1012.3
20260903033402 29 120 6.4 16.1 0.00 0.00 0.00 85 1012.2
20260903033302 29 56 6.4 16.1 0.00 0.00 0.00 85 1012.2
20260903033203 29 123 4.8 16.1 0.00 0.00 0.00 85 1012.3
20260903033104 29 152 6.4 16.1 0.00 0.00 0.00 85 1012.3
20260903033004 29 118 8.0 16.1 0.00 0.00 0.00 85 1012.2
20260903032902 29 135 8.0 14.5 0.00 0.00 0.00 85 1012.2
20260903032803 29 149 9.7 14.5 0.00 0.00 0.00 85 1012.2
20260903032703 29 114 9.7 14.5 0.00 0.00 0.00 85 1012.2
20260903032602 29 147 9.7 14.5 0.00 0.00 0.00 85 1012.2
20260903032502 29 154 9.7 14.5 0.00 0.00 0.00 85 1012.2
20260903032403 29 107 8.0 14.5 0.00 0.00 0.00 85 1012.2
20260903032305 29 113 6.4 14.5 0.00 0.00 0.00 85 1012.2
20260903032203 29 94 6.4 14.5 0.00 0.00 0.00 85 1012.2
20260903032103 29 93 8.0 14.5 0.00 0.00 0.00 85 1012.2
20260903032003 29 127 8.0 14.5 0.00 0.00 0.00 85 1012.1
20260903031902 29 114 8.0 14.5 0.00 0.00 0.00 85 1012.3
20260903031802 29 113 8.0 14.5 0.00 0.00 0.00 85 1012.1
20260903031702 29 114 8.0 14.5 0.00 0.00 0.00 85 1012.2
20260903031604 29 114 6.4 14.5 0.00 0.00 0.00 85 1012.1
20260903031502 29 90 6.4 14.5 0.00 0.00 0.00 85 1012.2
20260903031404 29 107 6.4 14.5 0.00 0.00 0.00 85 1012.1
20260903031303 29 116 6.4 14.5 0.00 0.00 0.00 85 1012.1
20260903031202 29 179 8.0 16.1 0.00 0.00 0.00 85 1012.2
20260903031103 29 110 9.7 16.1 0.00 0.00 0.00 85 1012.1
20260903031004 29 111 8.0 16.1 0.00 0.00 0.00 85 1012.1
20260903030903 29 148 6.4 16.1 0.00 0.00 0.00 85 1012.1
20260903030802 29 127 8.0 16.1 0.00 0.00 0.00 85 1012.0
20260903030703 29 100 8.0 16.1 0.00 0.00 0.00 85 1012.1
20260903030602 29 96 6.4 19.3 0.00 0.00 0.00 85 1012.0
20260903030502 29 133 6.4 19.3 0.00 0.00 0.00 85 1012.0
20260903030403 29 80 8.0 20.9 0.00 0.00 0.00 85 1012.1
20260903030303 29 128 8.0 20.9 0.00 0.00 0.00 85 1012.1
20260903030202 29 51 6.4 20.9 0.00 0.00 0.00 85 1012.1
20260903030002 29 159 8.0 20.9 0.00 0.00 0.00 85 1012.0
20260903025902 29 138 8.0 20.9 0.00 0.00 0.00 85 1011.9
20260903025803 29 73 9.7 20.9 0.00 0.00 0.00 85 1011.9
20260903025704 29 134 9.7 20.9 0.00 0.00 0.00 85 1012.0
20260903025602 29 97 9.7 20.9 0.00 0.00 0.00 85 1011.9
20260903025502 29 186 9.7 20.9 0.00 0.00 0.00 85 1012.0
20260903025402 29 157 6.4 14.5 0.00 0.00 0.00 85 1011.9
20260903025301 29 130 8.0 14.5 0.00 0.00 0.00 85 1012.0
20260903025202 29 149 8.0 14.5 0.00 0.00 0.00 85 1011.8
20260903025102 29 109 6.4 14.5 0.00 0.00 0.00 85 1012.0
20260903025003 29 86 6.4 11.3 0.00 0.00 0.00 84 1011.9
20260903024902 29 151 6.4 11.3 0.00 0.00 0.00 84 1011.9
20260903024801 28 123 4.8 11.3 0.00 0.00 0.00 84 1011.9
20260903024703 28 111 6.4 11.3 0.00 0.00 0.00 84 1011.9
20260903024602 28 138 6.4 11.3 0.00 0.00 0.00 84 1012.0
20260903024501 28 110 4.8 8.0 0.00 0.00 0.00 83 1011.9
20260903024402 28 111 4.8 8.0 0.00 0.00 0.00 83 1011.9
20260903024303 28 110 4.8 9.7 0.00 0.00 0.00 83 1011.9
20260903024203 28 99 4.8 9.7 0.00 0.00 0.00 83 1011.9
20260903024103 28 117 4.8 9.7 0.00 0.00 0.00 83 1012.0
20260903024003 28 97 4.8 9.7 0.00 0.00 0.00 83 1011.9
20260903023902 28 97 4.8 9.7 0.00 0.00 0.00 83 1011.9
20260903023802 28 97 4.8 9.7 0.00 0.00 0.00 83 1011.9
20260903023702 28 79 4.8 9.7 0.00 0.00 0.00 83 1011.8
20260903023604 28 79 4.8 9.7 0.00 0.00 0.00 83 1011.8
20260903023502 28 78 6.4 9.7 0.00 0.00 0.00 83 1011.7
20260903023402 28 106 8.0 9.7 0.00 0.00 0.00 83 1011.7
20260903023303 28 120 6.4 9.7 0.00 0.00 0.00 83 1011.7
20260903023202 28 130 6.4 9.7 0.00 0.00 0.00 83 1011.6
20260903023102 28 110 4.8 8.0 0.00 0.00 0.00 83 1011.6
20260903023003 28 107 4.8 8.0 0.00 0.00 0.00 83 1011.5
20260903022903 28 89 3.2 8.0 0.00 0.00 0.00 83 1011.6
20260903022802 28 137 3.2 8.0 0.00 0.00 0.00 83 1011.5
20260903022702 28 109 3.2 8.0 0.00 0.00 0.00 83 1011.4
20260903022603 28 109 4.8 9.7 0.00 0.00 0.00 83 1011.6
20260903022503 28 109 6.4 9.7 0.00 0.00 0.00 83 1011.5
20260903022402 28 116 6.4 9.7 0.00 0.00 0.00 83 1011.5
20260903022306 28 118 4.8 9.7 0.00 0.00 0.00 83 1011.5
20260903022202 28 99 3.2 9.7 0.00 0.00 0.00 83 1011.5
20260903022104 28 97 4.8 9.7 0.00 0.00 0.00 83 1011.4
20260903022004 28 92 6.4 9.7 0.00 0.00 0.00 83 1011.4
20260903021903 28 92 6.4 9.7 0.00 0.00 0.00 83 1011.4
20260903021802 28 92 8.0 9.7 0.00 0.00 0.00 83 1011.4
20260903021702 28 89 8.0 9.7 0.00 0.00 0.00 83 1011.4
20260903021605 28 82 8.0 9.7 0.00 0.00 0.00 83 1011.3
20260903021503 28 69 8.0 9.7 0.00 0.00 0.00 83 1011.3
20260903021402 28 71 6.4 9.7 0.00 0.00 0.00 83 1011.3
20260903021302 28 59 6.4 8.0 0.00 0.00 0.00 83 1011.3
20260903021203 28 61 6.4 8.0 0.00 0.00 0.00 83 1011.3
20260903021102 27 59 4.8 8.0 0.00 0.00 0.00 83 1011.4
20260903021002 27 76 4.8 8.0 0.00 0.00 0.00 83 1011.3
20260903020903 27 76 4.8 9.7 0.00 0.00 0.00 83 1011.3
20260903020802 27 76 4.8 9.7 0.00 0.00 0.00 83 1011.3
20260903020702 27 76 4.8 9.7 0.00 0.00 0.00 83 1011.3
20260903020603 27 76 4.8 9.7 0.00 0.00 0.00 83 1011.3
20260903020503 27 76 4.8 9.7 0.00 0.00 0.00 83 1011.2
20260903020402 27 85 4.8 9.7 0.00 0.00 0.00 83 1011.2
20260903020302 27 82 4.8 9.7 0.00 0.00 0.00 83 1011.1
20260903020204 27 100 6.4 9.7 0.00 0.00 0.00 83 1011.1
20260903020003 27 107 8.0 9.7 0.00 0.00 0.00 83 1011.0
20260903015904 27 109 6.4 8.0 0.00 0.00 0.00 83 1011.0
20260903015802 27 93 4.8 6.4 0.00 0.00 0.00 83 1011.0
20260903015702 27 106 4.8 6.4 0.00 0.00 0.00 83 1011.0
20260903015601 27 135 3.2 6.4 0.00 0.00 0.00 83 1011.0
20260903015502 27 87 1.6 6.4 0.00 0.00 0.00 83 1011.0
20260903015402 27 120 3.2 6.4 0.00 0.00 0.00 83 1011.1
20260903015305 27 118 4.8 6.4 0.00 0.00 0.00 83 1011.1
20260903015203 27 102 6.4 6.4 0.00 0.00 0.00 83 1011.2
20260903015102 27 66 3.2 6.4 0.00 0.00 0.00 83 1011.2
20260903015003 27 65 3.2 6.4 0.00 0.00 0.00 83 1011.3
20260903014902 27 65 3.2 6.4 0.00 0.00 0.00 83 1011.3
20260903014803 27 65 4.8 8.0 0.00 0.00 0.00 83 1011.3
20260903014702 27 65 4.8 8.0 0.00 0.00 0.00 83 1011.4
20260903014602 27 63 3.2 8.0 0.00 0.00 0.00 82 1011.4
20260903014503 27 63 3.2 8.0 0.00 0.00 0.00 82 1011.4
20260903014403 27 63 4.8 9.7 0.00 0.00 0.00 82 1011.5
20260903014302 27 59 3.2 9.7 0.00 0.00 0.00 82 1011.5
20260903014202 27 59 3.2 11.3 0.00 0.00 0.00 82 1011.5
20260903014103 27 59 4.8 11.3 0.00 0.00 0.00 82 1011.5
20260903014004 27 52 6.4 11.3 0.00 0.00 0.00 81 1011.5
20260903013902 27 51 6.4 11.3 0.00 0.00 0.00 81 1011.5
20260903013803 27 32 4.8 16.1 0.00 0.00 0.00 81 1011.7
20260903013702 27 24 4.8 16.1 0.00 0.00 0.00 81 1011.6
20260903013603 28 37 6.4 16.1 0.00 0.00 0.00 81 1011.7
20260903013503 28 32 8.0 16.1 0.00 0.00 0.00 80 1011.7
20260903013403 28 42 8.0 16.1 0.00 0.00 0.00 80 1011.7
20260903013302 28 30 8.0 16.1 0.00 0.00 0.00 80 1011.7
20260903013202 28 30 8.0 16.1 0.00 0.00 0.00 80 1011.6
20260903013103 28 31 8.0 16.1 0.00 0.00 0.00 80 1011.6
20260903013003 28 41 9.7 16.1 0.00 0.00 0.00 80 1011.6
20260903012902 28 24 9.7 16.1 0.00 0.00 0.00 79 1011.5
20260903012804 28 49 9.7 16.1 0.00 0.00 0.00 79 1011.4
20260903012702 28 28 8.0 16.1 0.00 0.00 0.00 79 1011.4
20260903012602 28 30 8.0 16.1 0.00 0.00 0.00 79 1011.3
20260903012503 28 13 8.0 16.1 0.00 0.00 0.00 79 1011.2
20260903012403 28 25 8.0 16.1 0.00 0.00 0.00 79 1011.2
20260903012302 28 54 8.0 17.7 0.00 0.00 0.00 79 1011.2
20260903012202 28 71 8.0 17.7 0.00 0.00 0.00 79 1011.2
20260903012104 28 52 9.7 17.7 0.00 0.00 0.00 79 1011.2
20260903012002 28 68 11.3 19.3 0.00 0.00 0.00 78 1011.3
20260903011903 28 58 9.7 19.3 0.00 0.00 0.00 78 1011.3
20260903011803 28 58 8.0 19.3 0.00 0.00 0.00 78 1011.4
20260903011703 28 47 9.7 24.1 0.00 0.00 0.00 78 1011.4
20260903011602 28 85 11.3 24.1 0.00 0.00 0.00 78 1011.3
20260903011503 28 49 12.9 24.1 0.00 0.00 0.00 78 1011.3
20260903011404 28 61 11.3 25.7 0.00 0.00 0.00 78 1011.3
20260903011303 28 49 9.7 25.7 0.00 0.00 0.00 77 1011.4
20260903011202 28 24 12.9 25.7 0.00 0.00 0.00 77 1011.3
20260903011102 28 49 12.9 25.7 0.00 0.00 0.00 77 1011.3
20260903011003 29 54 9.7 25.7 0.00 0.00 0.00 76 1011.4
20260903010902 29 56 12.9 25.7 0.00 0.00 0.00 76 1011.4
20260903010803 29 39 14.5 25.7 0.00 0.00 0.00 76 1011.4
20260903010704 29 49 16.1 25.7 0.00 0.00 0.00 76 1011.5
20260903010603 29 39 19.3 25.7 0.00 0.00 0.00 76 1011.4
20260903010502 29 27 17.7 25.7 0.00 0.00 0.00 76 1011.4
20260903010403 29 48 16.1 25.7 0.00 0.00 0.00 76 1011.3
20260903010302 30 7 14.5 20.9 0.00 0.00 0.00 76 1011.3
20260903010201 30 24 14.5 20.9 0.00 0.00 0.00 76 1011.2
20260903010004 30 41 14.5 20.9 0.00 0.00 0.00 76 1010.9
20260903005904 30 85 14.5 20.9 0.00 0.00 0.00 76 1010.9
20260903005802 30 71 12.9 20.9 0.00 0.00 0.00 76 1010.9
20260903005703 30 89 11.3 19.3 0.00 0.00 0.00 75 1010.9
20260903005603 30 100 11.3 19.3 0.00 0.00 0.00 75 1010.9
20260903005503 30 62 8.0 22.5 0.00 0.00 0.00 75 1010.8
20260903005403 30 68 8.0 22.5 0.00 0.00 0.00 74 1010.7
20260903005306 30 62 8.0 22.5 0.00 0.00 0.00 74 1010.7
20260903005203 30 68 9.7 22.5 0.00 0.00 0.00 73 1010.6
20260903005102 30 56 12.9 22.5 0.00 0.00 0.00 73 1010.6
20260903005003 30 83 12.9 24.1 0.00 0.00 0.00 73 1010.4
20260903004902 30 34 12.9 24.1 0.00 0.00 0.00 73 1010.4
20260903004803 30 24 12.9 24.1 0.00 0.00 0.00 72 1010.4
20260903004703 30 35 14.5 24.1 0.00 0.00 0.00 71 1010.4
20260903004603 31 37 12.9 24.1 0.00 0.00 0.00 71 1010.4
20260903004502 31 51 8.0 24.1 0.00 0.00 0.00 70 1010.4
20260903004402 31 75 8.0 24.1 0.00 0.00 0.00 69 1010.5
20260903004303 31 52 14.5 24.1 0.00 0.00 0.00 68 1010.4
20260903004202 31 37 16.1 24.1 0.00 0.00 0.00 68 1010.5
20260903004103 31 38 14.5 24.1 0.00 0.00 0.00 66 1010.6
20260903004003 31 104 12.9 20.9 0.00 0.00 0.00 66 1010.5
20260903003903 31 85 11.3 20.9 0.00 0.00 0.00 66 1010.5
20260903003804 31 86 9.7 20.9 0.00 0.00 0.00 66 1010.5
20260903003705 31 90 6.4 17.7 0.00 0.00 0.00 66 1010.5
20260903003602 31 86 6.4 17.7 0.00 0.00 0.00 66 1010.6
20260903003502 31 97 6.4 17.7 0.00 0.00 0.00 66 1010.6
20260903003403 32 120 6.4 17.7 0.00 0.00 0.00 65 1010.6
20260903003304 32 196 6.4 17.7 0.00 0.00 0.00 65 1010.6
20260903003203 32 130 8.0 17.7 0.00 0.00 0.00 65 1010.6
20260903003102 32 42 9.7 17.7 0.00 0.00 0.00 65 1010.6
20260903003005 32 141 9.7 17.7 0.00 0.00 0.00 65 1010.6
20260903002902 32 149 8.0 30.6 0.00 0.00 0.00 65 1010.6
20260903002802 32 175 8.0 30.6 0.00 0.00 0.00 65 1010.6
20260903002702 32 154 8.0 30.6 0.00 0.00 0.00 65 1010.5
20260903002604 32 223 6.4 30.6 0.00 0.00 0.00 65 1010.4
20260903002502 32 102 8.0 30.6 0.00 0.00 0.00 65 1010.4
20260903002402 32 206 8.0 30.6 0.00 0.00 0.00 65 1010.4
20260903002306 32 161 8.0 30.6 0.00 0.00 0.00 65 1010.3
20260903002202 32 237 8.0 30.6 0.00 0.00 0.00 65 1010.3
20260903002102 32 89 9.7 30.6 0.00 0.00 0.00 65 1010.2
20260903002004 32 188 12.9 30.6 0.00 0.00 0.00 65 1010.2
20260903001902 32 111 9.7 30.6 0.00 0.00 0.00 65 1010.1
20260903001803 32 133 9.7 30.6 0.00 0.00 0.00 65 1010.1
20260903001704 32 182 9.7 30.6 0.00 0.00 0.00 65 1010.1
20260903001602 32 162 11.3 30.6 0.00 0.00 0.00 66 1010.0
20260903001502 32 142 11.3 30.6 0.00 0.00 0.00 66 1010.0
20260903001401 32 185 9.7 30.6 0.00 0.00 0.00 66 1010.0
20260903001303 32 76 9.7 32.2 0.00 0.00 0.00 65 1009.9
20260903001203 32 144 14.5 32.2 0.00 0.00 0.00 65 1009.9
20260903001102 32 237 16.1 32.2 0.00 0.00 0.00 65 1009.8
20260903001002 32 189 12.9 32.2 0.00 0.00 0.00 65 1009.8
20260903000902 32 161 12.9 32.2 0.00 0.00 0.00 65 1009.7
20260903000803 32 178 12.9 32.2 0.00 0.00 0.00 65 1009.7
20260903000702 32 173 11.3 32.2 0.00 0.00 0.00 65 1009.6
20260903000603 32 172 11.3 32.2 0.00 0.00 0.00 66 1009.7
20260903000504 32 185 14.5 32.2 0.00 0.00 0.00 65 1009.6
20260903000402 32 152 14.5 32.2 0.00 0.00 0.00 65 1009.5
20260903000303 32 233 14.5 27.4 0.00 0.00 0.00 65 1009.5
20260903000204 32 195 14.5 27.4 0.00 0.00 0.00 65 1009.3
20260903000003 32 152 11.3 25.7 0.00 0.00 0.00 65 1009.3
20260902235903 32 176 8.0 25.7 0.00 0.00 0.00 65 1009.1
20260902235803 32 269 9.7 25.7 0.00 0.00 0.00 65 1009.2
20260902235704 32 99 14.5 25.7 0.00 0.00 0.00 65 1009.2
20260902235603 32 175 16.1 25.7 0.00 0.00 0.00 65 1009.1
20260902235503 32 142 12.9 25.7 0.00 0.00 0.00 65 1009.2
20260902235402 32 171 11.3 25.7 0.00 0.00 0.00 65 1009.2
20260902235305 32 185 12.9 25.7 0.00 0.00 0.00 64 1009.2
20260902235203 32 188 12.9 25.7 0.00 0.00 0.00 64 1009.1
20260902235102 32 103 14.5 25.7 0.00 0.00 0.00 64 1009.1
20260902235003 32 188 11.3 25.7 0.00 0.00 0.00 64 1009.1
20260902234904 33 128 8.0 25.7 0.00 0.00 0.00 64 1009.1
20260902234802 33 152 9.7 25.7 0.00 0.00 0.00 64 1009.1
20260902234701 33 92 9.7 25.7 0.00 0.00 0.00 64 1009.0
20260902234602 33 159 11.3 25.7 0.00 0.00 0.00 64 1009.0
20260902234505 33 159 11.3 25.7 0.00 0.00 0.00 64 1008.9
20260902234402 33 147 9.7 25.7 0.00 0.00 0.00 64 1008.9
20260902234302 33 134 11.3 25.7 0.00 0.00 0.00 63 1008.9
20260902234203 33 188 12.9 25.7 0.00 0.00 0.00 63 1008.9
20260902234103 33 261 12.9 25.7 0.00 0.00 0.00 63 1008.9
20260902234004 33 130 12.9 25.7 0.00 0.00 0.00 63 1009.0
20260902233904 33 164 12.9 25.7 0.00 0.00 0.00 63 1009.0
20260902233803 33 124 11.3 25.7 0.00 0.00 0.00 63 1009.0
20260902233703 33 171 8.0 25.7 0.00 0.00 0.00 63 1009.1
20260902233603 33 168 6.4 27.4 0.00 0.00 0.00 63 1009.0
20260902233505 33 168 9.7 27.4 0.00 0.00 0.00 63 1009.1
20260902233403 33 162 11.3 27.4 0.00 0.00 0.00 63 1009.1
20260902233302 33 116 9.7 27.4 0.00 0.00 0.00 63 1009.1
20260902233203 33 157 11.3 27.4 0.00 0.00 0.00 62 1009.1
20260902233103 33 27 12.9 27.4 0.00 0.00 0.00 62 1009.1
20260902233003 33 134 12.9 27.4 0.00 0.00 0.00 62 1009.2
20260902232903 33 162 14.5 27.4 0.00 0.00 0.00 62 1009.2
20260902232803 33 196 14.5 27.4 0.00 0.00 0.00 62 1009.3
20260902232702 33 164 9.7 27.4 0.00 0.00 0.00 62 1009.2
20260902232602 33 183 6.4 25.7 0.00 0.00 0.00 62 1009.2
20260902232504 33 71 8.0 25.7 0.00 0.00 0.00 62 1009.3
20260902232402 33 154 11.3 25.7 0.00 0.00 0.00 62 1009.3
20260902232302 33 124 11.3 25.7 0.00 0.00 0.00 62 1009.4
20260902232203 33 137 9.7 25.7 0.00 0.00 0.00 62 1009.4
20260902232103 33 255 11.3 25.7 0.00 0.00 0.00 62 1009.4
20260902232004 33 114 11.3 25.7 0.00 0.00 0.00 62 1009.4
20260902231902 33 157 9.7 22.5 0.00 0.00 0.00 62 1009.5
20260902231802 33 207 9.7 20.9 0.00 0.00 0.00 63 1009.4
20260902231703 33 186 9.7 20.9 0.00 0.00 0.00 63 1009.4
20260902231602 33 130 8.0 17.7 0.00 0.00 0.00 63 1009.4
20260902231503 33 109 8.0 17.7 0.00 0.00 0.00 63 1009.4
20260902231402 33 265 6.4 17.7 0.00 0.00 0.00 63 1009.3
20260902231304 33 107 8.0 17.7 0.00 0.00 0.00 63 1009.3
20260902231203 33 179 9.7 17.7 0.00 0.00 0.00 63 1009.3
20260902231104 33 161 9.7 20.9 0.00 0.00 0.00 63 1009.3
20260902231002 33 171 6.4 20.9 0.00 0.00 0.00 63 1009.2
20260902230902 33 180 4.8 20.9 0.00 0.00 0.00 63 1009.2
20260902230803 33 71 8.0 20.9 0.00 0.00 0.00 63 1009.2
20260902230702 33 216 9.7 20.9 0.00 0.00 0.00 63 1009.3
20260902230603 33 137 8.0 20.9 0.00 0.00 0.00 63 1009.2
20260902230502 33 142 8.0 20.9 0.00 0.00 0.00 63 1009.3
20260902230359 33 189 9.7 20.9 0.00 0.00 0.00 63 1009.2
20260902230258 33 162 11.3 20.9 0.00 0.00 0.00 63 1009.4
20260902230155 33 134 9.7 20.9 0.00 0.00 0.00 63 1009.4
20260902230056 33 157 8.0 20.9 0.00 0.00 0.00 63 1009.3
20260902225954 33 179 9.7 20.9 0.00 0.00 0.00 63 1009.3
20260902225856 33 142 9.7 25.7 0.00 0.00 0.00 63 1009.3
20260902225754 33 157 9.7 25.7 0.00 0.00 0.00 63 1009.1
20260902225655 33 131 9.7 25.7 0.00 0.00 0.00 63 1009.1
20260902225556 33 172 9.7 25.7 0.00 0.00 0.00 63 1009.1
20260902225455 33 188 9.7 25.7 0.00 0.00 0.00 63 1009.0
20260902225354 33 144 9.7 25.7 0.00 0.00 0.00 63 1009.1
20260902225254 33 176 9.7 25.7 0.00 0.00 0.00 63 1009.0
20260902225154 33 152 11.3 25.7 0.00 0.00 0.00 63 1009.0
20260902225054 33 235 9.7 25.7 0.00 0.00 0.00 63 1009.0
20260902224955 33 234 9.7 25.7 0.00 0.00 0.00 62 1009.0
20260902224856 33 159 9.7 25.7 0.00 0.00 0.00 62 1009.0
20260902224755 34 175 11.3 27.4 0.00 0.00 0.00 62 1009.0
20260902224655 34 130 11.3 27.4 0.00 0.00 0.00 62 1009.0
20260902224554 34 147 9.7 27.4 0.00 0.00 0.00 62 1009.0
20260902224455 34 133 9.7 27.4 0.00 0.00 0.00 62 1009.1
20260902224354 34 155 11.3 27.4 0.00 0.00 0.00 62 1009.2
20260902224254 34 151 11.3 27.4 0.00 0.00 0.00 61 1009.1
20260902224155 34 149 12.9 27.4 0.00 0.00 0.00 61 1009.1
20260902224054 34 169 14.5 27.4 0.00 0.00 0.00 61 1009.2
20260902223955 34 175 12.9 27.4 0.00 0.00 0.00 61 1009.2
20260902223856 34 128 12.9 27.4 0.00 0.00 0.00 61 1009.3
20260902223754 34 133 9.7 20.9 0.00 0.00 0.00 61 1009.3
20260902223655 34 159 6.4 17.7 0.00 0.00 0.00 62 1009.3
20260902223554 34 137 6.4 17.7 0.00 0.00 0.00 61 1009.3
20260902223455 34 127 6.4 17.7 0.00 0.00 0.00 62 1009.3
20260902223354 34 176 6.4 17.7 0.00 0.00 0.00 62 1009.3
20260902223254 34 97 8.0 20.9 0.00 0.00 0.00 62 1009.2
20260902223155 34 166 8.0 22.5 0.00 0.00 0.00 61 1009.3
20260902223055 34 135 6.4 22.5 0.00 0.00 0.00 62 1009.3
20260902222953 34 149 8.0 22.5 0.00 0.00 0.00 62 1009.3
20260902222854 34 128 9.7 22.5 0.00 0.00 0.00 61 1009.3
20260902222756 34 147 8.0 22.5 0.00 0.00 0.00 61 1009.3
20260902222653 34 149 8.0 22.5 0.00 0.00 0.00 61 1009.2
20260902222554 34 207 9.7 22.5 0.00 0.00 0.00 61 1009.2
20260902222455 34 137 8.0 22.5 0.00 0.00 0.00 61 1009.3
20260902222355 34 82 9.7 22.5 0.00 0.00 0.00 61 1009.3
20260902222253 34 133 9.7 22.5 0.00 0.00 0.00 61 1009.2
20260902222155 34 255 8.0 19.3 0.00 0.00 0.00 62 1009.4
20260902222055 34 128 6.4 20.9 0.00 0.00 0.00 62 1009.3
20260902221954 34 120 6.4 20.9 0.00 0.00 0.00 61 1009.3
20260902221854 34 120 8.0 20.9 0.00 0.00 0.00 61 1009.4
20260902221754 34 141 9.7 20.9 0.00 0.00 0.00 61 1009.4
20260902221654 34 235 8.0 20.9 0.00 0.00 0.00 61 1009.4
20260902221554 34 123 4.8 22.5 0.00 0.00 0.00 61 1009.4
20260902221454 34 157 9.7 22.5 0.00 0.00 0.00 61 1009.4
20260902221355 34 151 9.7 22.5 0.00 0.00 0.00 61 1009.3
20260902221254 34 99 9.7 22.5 0.00 0.00 0.00 61 1009.3
20260902221154 34 154 11.3 24.1 0.00 0.00 0.00 60 1009.4
20260902221056 34 148 9.7 24.1 0.00 0.03 0.00 61 1009.4
20260902220953 34 135 8.0 24.1 0.00 0.03 0.00 61 1009.4
20260902220854 34 121 9.7 24.1 0.00 0.03 0.00 61 1009.3
20260902220753 34 83 14.5 24.1 0.00 0.03 0.00 60 1009.4
20260902220653 34 140 11.3 24.1 0.00 0.03 0.00 60 1009.4
20260902220554 34 121 8.0 24.1 0.00 0.03 0.00 61 1009.3
20260902220453 34 142 9.7 24.1 0.00 0.03 0.00 61 1009.4
20260902220354 34 185 12.9 24.1 0.00 0.03 0.00 60 1009.3
20260902220254 34 176 11.3 24.1 0.00 0.03 0.00 60 1009.4
20260902220153 34 212 9.7 24.1 0.00 0.03 0.00 60 1009.4
20260902220053 34 92 8.0 24.1 0.00 0.03 0.00 60 1009.4
20260902215954 34 172 11.3 24.1 0.00 0.03 0.00 60 1009.4
20260902215854 34 147 12.9 24.1 0.00 0.03 0.00 60 1009.4
20260902215753 34 135 9.7 22.5 0.00 0.03 0.00 60 1009.4
20260902215654 34 169 9.7 22.5 0.00 0.03 0.00 61 1009.5
20260902215554 34 140 9.7 22.5 0.00 0.03 0.00 61 1009.4
20260902215453 34 92 9.7 22.5 0.00 0.03 0.00 61 1009.4
20260902215354 34 120 9.7 22.5 0.00 0.03 0.00 61 1009.5
20260902215254 34 147 11.3 22.5 0.00 0.03 0.00 61 1009.4
20260902215153 34 168 12.9 22.5 0.00 0.03 0.00 60 1009.4
20260902215053 35 172 11.3 22.5 0.00 0.03 0.00 61 1009.6
20260902214955 35 144 9.7 22.5 0.00 0.03 0.00 61 1009.5
20260902214853 34 259 8.0 22.5 0.00 0.03 0.00 61 1009.6
20260902214752 35 141 11.3 22.5 0.00 0.03 0.00 60 1009.6
20260902214654 35 125 11.3 22.5 0.00 0.03 0.00 60 1009.4
20260902214553 35 200 8.0 20.9 0.00 0.03 0.00 60 1009.4
20260902214453 35 173 8.0 20.9 0.00 0.03 0.00 60 1009.5
20260902214353 35 164 11.3 20.9 0.00 0.03 0.00 60 1009.4
20260902214255 35 124 12.9 20.9 0.00 0.03 0.00 60 1009.4
20260902214153 35 171 11.3 20.9 0.00 0.03 0.00 60 1009.5
20260902214053 35 169 8.0 22.5 0.00 0.03 0.00 61 1009.4
20260902213954 35 190 6.4 24.1 0.00 0.03 0.00 61 1009.4
20260902213854 35 175 9.7 24.1 0.00 0.03 0.00 61 1009.4
20260902213754 35 144 9.7 24.1 0.00 0.03 0.00 61 1009.5
20260902213652 35 145 8.0 24.1 0.00 0.03 0.00 61 1009.4
20260902213553 35 226 8.0 24.1 0.00 0.03 0.00 61 1009.5
20260902213454 35 124 6.4 24.1 0.00 0.03 0.00 61 1009.5
20260902213353 35 159 6.4 24.1 0.00 0.03 0.00 61 1009.5
20260902213253 35 193 11.3 24.1 0.00 0.03 0.00 60 1009.5
20260902213154 35 171 14.5 24.1 0.00 0.03 0.00 60 1009.5
20260902213052 35 142 9.7 24.1 0.00 0.03 0.00 60 1009.5
20260902212953 35 92 9.7 19.3 0.00 0.03 0.00 60 1009.5
20260902212853 35 168 8.0 19.3 0.00 0.03 0.00 60 1009.5
20260902212752 35 85 8.0 19.3 0.00 0.03 0.00 60 1009.5
20260902212652 35 166 9.7 19.3 0.00 0.03 0.00 60 1009.5
20260902212553 35 151 8.0 20.9 0.00 0.03 0.00 60 1009.5
20260902212453 35 193 6.4 20.9 0.00 0.03 0.00 60 1009.6
20260902212353 35 83 6.4 20.9 0.00 0.03 0.00 60 1009.6
20260902212253 35 80 9.7 20.9 0.00 0.03 0.00 60 1009.6
20260902212153 35 138 9.7 20.9 0.00 0.03 0.00 61 1009.6
20260902212052 35 110 9.7 20.9 0.00 0.03 0.00 60 1009.6
20260902211952 35 147 9.7 20.9 0.00 0.03 0.00 60 1009.5
20260902211853 35 149 9.7 20.9 0.00 0.03 0.00 60 1009.6
20260902211753 35 192 11.3 20.9 0.00 0.03 0.00 60 1009.6
20260902211652 35 137 9.7 20.9 0.00 0.03 0.00 60 1009.6
20260902211552 35 216 8.0 17.7 0.00 0.03 0.00 60 1009.6
20260902211454 35 197 8.0 17.7 0.00 0.03 0.00 60 1009.6
20260902211352 35 123 9.7 17.7 0.00 0.03 0.00 59 1009.6
20260902211252 35 120 9.7 17.7 0.00 0.03 0.00 59 1009.8
20260902211154 35 155 8.0 17.7 0.00 0.03 0.00 59 1009.7
20260902211053 35 209 8.0 19.3 0.00 0.03 0.00 59 1009.8
20260902210953 35 212 4.8 19.3 0.00 0.03 0.00 60 1009.8
20260902210854 35 188 4.8 19.3 0.00 0.03 0.00 60 1009.8
20260902210753 35 152 6.4 19.3 0.00 0.03 0.00 60 1009.8
20260902210654 35 230 6.4 19.3 0.00 0.03 0.00 60 1009.8
20260902210551 35 106 6.4 19.3 0.00 0.03 0.00 60 1009.8
20260902210453 35 113 9.7 19.3 0.00 0.03 0.00 60 1009.8
20260902210353 35 195 9.7 19.3 0.00 0.03 0.00 60 1009.8
20260902210253 35 94 9.7 19.3 0.00 0.03 0.00 60 1009.8
20260902210154 35 154 9.7 19.3 0.00 0.03 0.00 60 1009.8
20260902210053 35 61 9.7 20.9 0.00 0.03 0.00 61 1009.7
20260902205951 35 130 9.7 20.9 0.00 0.03 0.00 60 1009.7
20260902205851 35 149 8.0 20.9 0.00 0.03 0.00 60 1009.8
20260902205752 35 157 11.3 20.9 0.00 0.03 0.00 60 1009.8
20260902205653 35 103 11.3 20.9 0.00 0.03 0.00 61 1009.7
20260902205552 35 69 9.7 20.9 0.00 0.03 0.00 60 1009.7
20260902205453 35 145 9.7 20.9 0.00 0.03 0.00 60 1009.7
20260902205352 35 114 11.3 20.9 0.00 0.03 0.00 60 1009.7
20260902205251 35 176 11.3 20.9 0.00 0.03 0.00 60 1009.7
20260902205151 35 145 11.3 20.9 0.00 0.03 0.00 60 1009.6
20260902205053 35 121 9.7 20.9 0.00 0.03 0.00 60 1009.6
20260902204952 35 197 9.7 19.3 0.00 0.08 0.00 60 1009.6
20260902204852 35 149 9.7 19.3 0.00 0.08 0.00 60 1009.6
20260902204751 35 161 8.0 19.3 0.00 0.08 0.00 61 1009.7
20260902204652 35 86 8.0 19.3 0.00 0.08 0.00 60 1009.6
20260902204551 35 121 9.7 19.3 0.00 0.08 0.00 61 1009.7
20260902204451 35 48 9.7 19.3 0.00 0.08 0.00 60 1009.7
20260902204352 35 164 9.7 19.3 0.00 0.08 0.00 60 1009.8
20260902204251 35 213 8.0 19.3 0.00 0.08 0.00 60 1009.8
20260902204152 35 179 9.7 19.3 0.00 0.08 0.00 59 1009.7
20260902204053 35 97 9.7 19.3 0.00 0.08 0.00 59 1009.7
20260902203953 35 172 9.7 19.3 0.00 0.08 0.00 59 1009.9
20260902203852 35 172 11.3 19.3 0.00 0.08 0.00 58 1009.8
20260902203752 35 206 9.7 19.3 0.00 0.08 0.00 57 1009.8
20260902203652 35 169 8.0 19.3 0.00 0.10 0.00 57 1009.9
20260902203551 35 169 8.0 19.3 0.00 0.10 0.00 57 1009.9
20260902203451 35 192 9.7 19.3 0.00 0.10 0.00 57 1009.9
20260902203353 35 192 9.7 19.3 0.00 0.10 0.00 57 1010.0
20260902203252 35 219 9.7 19.3 0.00 0.10 0.00 56 1010.0
20260902203151 35 193 8.0 19.3 0.00 0.13 0.00 56 1010.0
20260902203051 35 121 9.7 19.3 0.00 0.13 0.00 57 1010.1
20260902202953 35 189 9.7 19.3 0.00 0.13 0.00 57 1010.1
20260902202851 35 196 9.7 20.9 0.00 0.13 0.00 57 1010.1
20260902202752 35 175 9.7 22.5 0.00 0.13 0.00 57 1010.1
20260902202652 35 203 8.0 22.5 0.00 0.13 0.00 57 1010.1
20260902202552 35 110 8.0 22.5 0.00 0.15 0.00 57 1010.1
20260902202451 35 224 8.0 22.5 0.00 0.15 0.00 57 1010.1
20260902202351 35 234 9.7 22.5 0.00 0.15 0.00 56 1010.2
20260902202253 35 231 8.0 22.5 0.00 0.15 0.00 56 1010.1
20260902202151 35 209 9.7 22.5 0.00 0.15 0.00 56 1010.1
20260902202051 35 180 14.5 22.5 0.00 0.15 0.00 56 1010.2
20260902201952 36 212 14.5 24.1 0.00 0.15 0.00 56 1010.2
20260902201851 36 186 11.3 24.1 0.00 0.15 0.00 57 1010.2
20260902201752 36 171 6.4 24.1 0.00 0.15 0.00 57 1010.1
20260902201652 36 237 9.7 24.1 0.00 0.15 0.00 57 1010.1
20260902201553 36 224 11.3 24.1 0.00 0.15 0.00 56 1010.0
20260902201451 36 214 9.7 24.1 0.00 0.15 0.00 56 1010.2
20260902201352 36 192 8.0 24.1 0.00 0.15 0.00 55 1010.1
20260902201251 36 259 9.7 24.1 0.00 0.15 0.00 56 1010.1
20260902201150 36 185 12.9 25.7 0.00 0.15 0.00 55 1010.1
20260902201051 36 162 12.9 27.4 0.00 0.15 0.00 56 1010.1
20260902200951 36 125 9.7 27.4 0.00 0.15 0.00 56 1010.1
20260902200852 36 204 9.7 27.4 0.00 0.15 0.00 55 1010.1
20260902200750 36 182 9.7 27.4 0.00 0.15 0.00 55 1010.1
20260902200650 36 190 9.7 27.4 0.00 0.15 0.00 55 1010.1
20260902200553 36 71 9.7 27.4 0.00 0.15 0.00 55 1010.2
20260902200451 36 104 9.7 27.4 0.00 0.15 0.00 56 1010.1
20260902200350 36 189 14.5 27.4 0.00 0.15 0.00 57 1010.1
20260902200251 36 207 19.3 27.4 0.00 0.15 0.00 56 1010.2
20260902200151 36 255 17.7 27.4 0.00 0.15 0.00 55 1010.2
20260902200050 36 261 14.5 22.5 0.00 0.15 0.00 56 1010.2
20260902195950 36 199 12.9 22.5 0.00 0.15 0.00 55 1010.3
20260902195851 36 245 11.3 20.9 0.00 0.15 0.00 56 1010.2
20260902195750 36 213 9.7 20.9 0.00 0.15 0.00 57 1010.3
20260902195651 36 165 8.0 20.9 0.00 0.15 0.00 57 1010.4
20260902195550 36 196 8.0 20.9 0.00 0.15 0.00 58 1010.3
20260902195451 35 219 9.7 20.9 0.00 0.15 0.00 58 1010.4
20260902195351 35 178 9.7 20.9 0.00 0.15 0.00 58 1010.4
20260902195251 35 161 9.7 20.9 0.00 0.15 0.00 59 1010.5
20260902195151 35 134 11.3 20.9 0.00 0.15 0.00 58 1010.5
20260902195051 35 172 11.3 20.9 0.00 0.15 0.00 59 1010.5
20260902194951 35 157 9.7 22.5 0.00 0.15 0.00 58 1010.5
20260902194852 35 164 8.0 22.5 0.00 0.15 0.00 58 1010.5
20260902194751 35 210 11.3 22.5 0.00 0.15 0.00 57 1010.6
20260902194650 35 219 12.9 22.5 0.00 0.15 0.00 57 1010.6
20260902194550 35 237 11.3 22.5 0.00 0.15 0.00 58 1010.6
20260902194451 35 214 11.3 22.5 0.00 0.15 0.00 58 1010.6
20260902194350 35 219 11.3 22.5 0.00 0.15 0.00 57 1010.6
20260902194251 35 233 12.9 22.5 0.00 0.15 0.00 58 1010.7
20260902194152 35 234 12.9 22.5 0.00 0.15 0.00 58 1010.8
20260902194050 35 230 12.9 22.5 0.00 0.15 0.00 58 1010.7
20260902193950 35 244 12.9 20.9 0.00 0.15 0.00 57 1010.7
20260902193850 35 233 11.3 20.9 0.00 0.15 0.00 57 1010.7
20260902193752 35 216 9.7 20.9 0.00 0.15 0.00 56 1010.7
20260902193650 36 203 11.3 20.9 0.00 0.15 0.00 56 1010.7
20260902193550 36 248 14.5 20.9 0.00 0.15 0.00 55 1010.8
20260902193450 36 255 14.5 20.9 0.00 0.15 0.00 55 1010.8
20260902193350 36 255 12.9 20.9 0.00 0.15 0.00 55 1010.8
20260902193251 36 226 9.7 20.9 0.00 0.15 0.00 56 1010.8
20260902193152 36 189 8.0 20.9 0.00 0.15 0.00 57 1010.8
20260902193052 36 209 8.0 20.9 0.00 0.15 0.00 57 1010.9
20260902192951 35 261 12.9 20.9 0.00 0.15 0.00 59 1010.9
20260902192850 35 261 12.9 20.9 0.00 0.15 0.00 59 1011.0
20260902192751 35 261 12.9 20.9 0.00 0.15 0.00 59 1010.9
20260902192650 35 261 12.9 20.9 0.00 0.15 0.00 59 1011.0
20260902192550 35 247 12.9 19.3 0.00 0.15 0.00 59 1011.0
20260902192450 35 257 11.3 19.3 0.00 0.15 0.00 59 1011.1
20260902192351 35 227 12.9 19.3 0.00 0.15 0.00 59 1011.0
20260902192250 35 234 11.3 19.3 0.00 0.15 0.00 59 1011.0
20260902192149 35 196 9.7 20.9 0.00 0.15 0.00 60 1011.0
20260902192050 35 250 8.0 22.5 0.00 0.15 0.00 60 1011.0
20260902191949 35 237 8.0 22.5 0.00 0.15 0.00 60 1011.0
20260902191850 35 210 9.7 30.6 0.00 0.15 0.00 61 1011.0
20260902191749 34 135 9.7 30.6 0.00 0.15 0.00 61 1011.0
20260902191650 34 248 9.7 30.6 0.00 0.15 0.00 61 1011.2
20260902191550 34 254 12.9 30.6 0.00 0.15 0.00 61 1011.2
20260902191449 34 234 12.9 30.6 0.00 0.15 0.00 62 1011.1
20260902191351 34 237 12.9 30.6 0.00 0.15 0.00 62 1011.2
20260902191250 34 248 16.1 30.6 0.00 0.15 0.00 62 1011.1
20260902191149 34 203 17.7 30.6 0.00 0.15 0.00 62 1011.2
20260902191050 34 233 17.7 30.6 0.00 0.15 0.00 62 1011.1
20260902190949 34 254 14.5 30.6 0.00 0.15 0.00 62 1011.1
20260902190849 34 250 9.7 20.9 0.00 0.15 0.00 62 1011.1
20260902190749 34 262 11.3 20.9 0.00 0.15 0.00 62 1011.2
20260902190651 34 286 11.3 20.9 0.00 0.15 0.00 62 1011.1
20260902190549 34 262 11.3 20.9 0.00 0.15 0.00 62 1011.1
20260902190449 34 243 9.7 19.3 0.00 0.15 0.00 62 1011.2
20260902190351 34 240 8.0 19.3 0.00 0.15 0.00 63 1011.2
20260902190249 33 217 9.7 19.3 0.00 0.15 0.00 63 1011.1
20260902190150 33 237 11.3 19.3 0.00 0.15 0.00 63 1011.2
20260902190050 33 243 11.3 19.3 0.00 0.15 0.00 63 1011.1
20260902185951 33 228 12.9 22.5 0.00 0.15 0.00 63 1011.1
20260902185849 33 213 11.3 22.5 0.00 0.15 0.00 63 1011.1
20260902185749 34 238 11.3 22.5 0.00 0.15 0.00 63 1011.1
20260902185651 34 241 11.3 22.5 0.00 0.15 0.00 63 1011.2
20260902185548 34 238 9.7 22.5 0.00 0.15 0.00 64 1011.2
20260902185449 33 223 9.7 22.5 0.00 0.15 0.00 64 1011.2
20260902185349 33 227 9.7 22.5 0.00 0.15 0.00 64 1011.1
20260902185251 33 247 11.3 22.5 0.00 0.15 0.00 64 1011.2
20260902185149 33 244 14.5 22.5 0.00 0.15 0.00 64 1011.2
20260902185049 33 238 16.1 22.5 0.00 0.15 0.00 64 1011.3
20260902184950 33 234 12.9 20.9 0.00 0.15 0.00 63 1011.2
20260902184849 34 261 11.3 20.9 0.00 0.15 0.00 64 1011.3
20260902184749 33 248 11.3 20.9 0.00 0.15 0.00 64 1011.3
20260902184649 33 238 12.9 20.9 0.00 0.15 0.00 64 1011.4
20260902184550 33 227 14.5 19.3 0.00 0.15 0.00 64 1011.4
20260902184448 33 220 12.9 19.3 0.00 0.15 0.00 64 1011.3
20260902184348 33 248 11.3 19.3 0.00 0.15 0.00 64 1011.4
20260902184250 33 228 11.3 19.3 0.00 0.15 0.00 64 1011.3
20260902184148 33 244 11.3 19.3 0.00 0.15 0.00 64 1011.4
20260902184048 33 213 11.3 19.3 0.00 0.15 0.00 64 1011.4
20260902183948 33 237 11.3 19.3 0.00 0.15 0.00 65 1011.4
20260902183849 33 250 9.7 20.9 0.00 0.15 0.00 65 1011.5
20260902183748 33 217 9.7 20.9 0.00 0.15 0.00 66 1011.5
20260902183649 33 217 8.0 20.9 0.00 0.15 0.00 66 1011.6
20260902183550 33 210 9.7 20.9 0.00 0.15 0.00 66 1011.6
20260902183448 33 209 9.7 20.9 0.00 0.15 0.00 66 1011.6
20260902183348 33 243 11.3 20.9 0.00 0.15 0.00 66 1011.5
20260902183248 33 251 9.7 20.9 0.00 0.15 0.00 66 1011.6
20260902183149 33 228 9.7 20.9 0.00 0.15 0.00 67 1011.6
20260902183048 33 237 12.9 20.9 0.00 0.15 0.00 66 1011.6
20260902182949 33 230 12.9 22.5 0.00 0.15 0.00 66 1011.6
20260902182849 33 214 9.7 22.5 0.00 0.15 0.00 67 1011.7
20260902182749 33 245 11.3 22.5 0.00 0.15 0.00 67 1011.6
20260902182648 33 238 11.3 22.5 0.00 0.15 0.00 67 1011.7
20260902182548 33 243 9.7 22.5 0.00 0.15 0.00 67 1011.8
20260902182451 32 233 9.7 22.5 0.00 0.15 0.00 67 1011.7
20260902182348 32 228 11.3 22.5 0.00 0.15 0.00 67 1011.7
20260902182249 32 271 12.9 22.5 0.00 0.15 0.00 66 1011.8
20260902182149 32 233 14.5 22.5 0.00 0.15 0.00 66 1011.8
20260902182048 32 240 12.9 22.5 0.00 0.15 0.00 66 1011.9
20260902181948 32 269 9.7 19.3 0.00 0.15 0.00 67 1011.8
20260902181848 33 306 9.7 19.3 0.00 0.15 0.00 67 1011.9
20260902181749 33 310 9.7 19.3 0.00 0.15 0.00 67 1011.8
20260902181648 32 271 9.7 19.3 0.00 0.15 0.00 68 1012.0
20260902181548 32 233 11.3 19.3 0.00 0.15 0.00 68 1011.8
20260902181450 32 178 12.9 19.3 0.00 0.15 0.00 69 1012.0
20260902181349 32 192 11.3 22.5 0.00 0.15 0.00 69 1012.0
20260902181249 32 257 9.7 22.5 0.00 0.15 0.00 69 1012.0
20260902181148 32 209 11.3 22.5 0.00 0.15 0.00 69 1012.1
20260902181049 32 240 11.3 22.5 0.00 0.15 0.00 69 1012.1
20260902180948 32 238 9.7 22.5 0.00 0.15 0.00 68 1012.1
20260902180847 32 245 9.7 22.5 0.00 0.15 0.00 68 1012.1
20260902180749 32 288 9.7 22.5 0.00 0.15 0.00 68 1012.2
20260902180649 32 261 11.3 22.5 0.00 0.15 0.00 68 1012.2
20260902180549 32 244 14.5 22.5 0.00 0.15 0.00 69 1012.3
20260902180449 32 238 16.1 22.5 0.00 0.15 0.00 68 1012.2
20260902180348 32 227 16.1 22.5 0.00 0.15 0.00 68 1012.3
20260902180248 32 234 14.5 20.9 0.00 0.15 0.00 68 1012.3
20260902180147 32 212 14.5 20.9 0.00 0.15 0.00 68 1012.3
20260902180051 32 227 12.9 20.9 0.00 0.15 0.00 68 1012.3
20260902175947 32 269 11.3 20.9 0.00 0.15 0.00 68 1012.3
20260902175847 32 223 11.3 20.9 0.00 0.15 0.00 68 1012.4
20260902175749 32 278 9.7 20.9 0.00 0.15 0.00 68 1012.4
20260902175649 32 257 9.7 20.9 0.00 0.15 0.00 68 1012.5
20260902175548 32 233 12.9 20.9 0.00 0.15 0.00 68 1012.5
20260902175447 32 206 14.5 20.9 0.00 0.15 0.00 68 1012.4
20260902175348 32 226 14.5 20.9 0.00 0.15 0.00 68 1012.5
20260902175247 32 243 12.9 19.3 0.00 0.15 0.00 68 1012.5
20260902175147 32 227 12.9 19.3 0.00 0.15 0.00 68 1012.5
20260902175047 32 271 12.9 20.9 0.00 0.15 0.00 69 1012.6
20260902174948 32 265 11.3 20.9 0.00 0.15 0.00 69 1012.6
20260902174848 32 302 9.7 20.9 0.00 0.15 0.00 69 1012.6
20260902174747 32 272 11.3 20.9 0.00 0.15 0.00 69 1012.5
20260902174648 32 261 14.5 20.9 0.00 0.15 0.00 68 1012.6
20260902174547 32 240 14.5 20.9 0.00 0.15 0.00 68 1012.6
20260902174447 32 262 11.3 24.1 0.00 0.15 0.00 69 1012.7
20260902174348 32 238 9.7 24.1 0.00 0.15 0.00 69 1012.7
20260902174248 32 213 11.3 24.1 0.00 0.15 0.00 69 1012.7
20260902174147 32 269 12.9 24.1 0.00 0.15 0.00 69 1012.7
20260902174047 32 235 11.3 24.1 0.00 0.15 0.00 69 1012.7
20260902173947 32 285 12.9 24.1 0.00 0.15 0.00 70 1012.7
20260902173847 32 243 14.5 24.1 0.00 0.15 0.00 70 1012.7
20260902173747 32 226 14.5 24.1 0.00 0.15 0.00 70 1012.7
20260902173648 32 235 16.1 24.1 0.00 0.15 0.00 69 1012.8
20260902173548 32 258 17.7 24.1 0.00 0.15 0.00 69 1012.8
20260902173448 32 245 14.5 25.7 0.00 0.15 0.00 69 1012.8
20260902173348 32 195 12.9 25.7 0.00 0.15 0.00 70 1012.8
20260902173248 32 254 9.7 25.7 0.00 0.15 0.00 70 1012.8
20260902173147 32 234 11.3 25.7 0.00 0.15 0.00 70 1012.8
20260902173047 32 224 12.9 25.7 0.00 0.15 0.00 70 1012.9
20260902172949 32 231 14.5 27.4 0.00 0.15 0.00 70 1012.8
20260902172848 32 199 16.1 27.4 0.00 0.15 0.00 70 1012.9
20260902172747 32 247 16.1 27.4 0.00 0.15 0.00 70 1012.8
20260902172647 31 231 17.7 27.4 0.00 0.15 0.00 71 1012.8
20260902172549 31 219 12.9 27.4 0.00 0.15 0.00 71 1012.9
20260902172447 31 235 12.9 27.4 0.00 0.15 0.00 71 1012.9
20260902172347 31 231 14.5 27.4 0.00 0.15 0.00 71 1013.0
20260902172248 31 274 17.7 27.4 0.00 0.15 0.00 72 1012.9
20260902172147 31 252 19.3 27.4 0.00 0.15 0.00 71 1012.9
20260902172047 31 214 20.9 27.4 0.00 0.15 0.00 71 1013.0
20260902171949 31 240 19.3 27.4 0.00 0.15 0.00 71 1013.0
20260902171847 31 233 19.3 27.4 0.00 0.15 0.00 71 1013.0
20260902171747 31 212 17.7 27.4 0.00 0.15 0.00 72 1013.1
20260902171648 31 250 17.7 27.4 0.00 0.15 0.00 72 1013.0
20260902171549 31 240 17.7 27.4 0.00 0.15 0.00 72 1013.0
20260902171448 31 206 14.5 27.4 0.00 0.15 0.00 73 1013.0
20260902171347 31 243 14.5 22.5 0.00 0.15 0.00 73 1013.1
20260902171247 31 219 16.1 22.5 0.00 0.15 0.00 74 1013.2
20260902171147 31 169 14.5 19.3 0.00 0.15 0.00 75 1013.2
20260902171046 31 250 14.5 22.5 0.00 0.15 0.00 75 1013.2
20260902170946 31 227 11.3 22.5 0.00 0.15 0.00 75 1013.2
20260902170847 31 272 9.7 22.5 0.00 0.15 0.00 75 1013.2
20260902170747 31 193 12.9 22.5 0.00 0.15 0.00 75 1013.2
20260902170646 31 243 11.3 22.5 0.00 0.15 0.00 75 1013.1
20260902170546 31 247 9.7 22.5 0.00 0.15 0.00 76 1013.1
20260902170448 31 237 9.7 22.5 0.00 0.15 0.00 76 1013.2
20260902170346 31 240 9.7 22.5 0.00 0.15 0.00 76 1013.3
20260902170246 31 298 11.3 22.5 0.00 0.15 0.00 76 1013.2
20260902170148 31 290 12.9 22.5 0.00 0.15 0.00 76 1013.2
20260902170047 31 231 11.3 24.1 0.00 0.15 0.00 76 1013.3
20260902165946 31 250 9.7 24.1 0.00 0.15 0.00 76 1013.3
20260902165847 31 257 9.7 24.1 0.00 0.15 0.00 76 1013.3
20260902165747 31 262 9.7 24.1 0.00 0.15 0.00 76 1013.3
20260902165649 31 320 11.3 24.1 0.00 0.15 0.00 76 1013.3
20260902165546 31 288 11.3 24.1 0.00 0.15 0.00 76 1013.4
20260902165447 31 298 9.7 24.1 0.00 0.15 0.00 77 1013.4
20260902165346 31 286 9.7 24.1 0.00 0.15 0.00 77 1013.4
20260902165246 31 296 11.3 24.1 0.00 0.15 0.00 76 1013.3
20260902165147 31 299 11.3 24.1 0.00 0.15 0.00 77 1013.3
20260902165047 31 278 12.9 20.9 0.00 0.15 0.00 76 1013.3
20260902164946 31 257 14.5 22.5 0.00 0.15 0.00 77 1013.4
20260902164846 31 255 11.3 22.5 0.00 0.15 0.00 77 1013.3
20260902164749 31 204 8.0 22.5 0.00 0.15 0.00 77 1013.4
20260902164646 31 264 8.0 22.5 0.00 0.15 0.00 77 1013.3
20260902164545 31 240 11.3 22.5 0.00 0.15 0.00 78 1013.4
20260902164447 31 233 12.9 22.5 0.00 0.15 0.00 78 1013.3
20260902164345 30 247 14.5 22.5 0.00 0.15 0.00 77 1013.4
20260902164246 30 234 12.9 22.5 0.00 0.15 0.00 78 1013.4
20260902164146 30 281 14.5 22.5 0.00 0.15 0.00 78 1013.4
20260902164047 30 209 17.7 22.5 0.00 0.15 0.00 78 1013.4
20260902163947 30 230 16.1 22.5 0.00 0.15 0.00 78 1013.4
20260902163846 30 275 11.3 20.9 0.00 0.15 0.00 78 1013.5
20260902163747 30 250 8.0 20.9 0.00 0.15 0.00 79 1013.5
20260902163646 30 274 9.7 20.9 0.00 0.15 0.00 79 1013.4
20260902163548 30 268 11.3 20.9 0.00 0.15 0.00 79 1013.4
20260902163448 30 324 9.7 20.9 0.00 0.15 0.00 79 1013.4
20260902163347 30 238 9.7 20.9 0.00 0.15 0.00 79 1013.5
20260902163245 30 257 12.9 20.9 0.00 0.15 0.00 79 1013.5
20260902163146 30 286 9.7 20.9 0.00 0.15 0.00 79 1013.4
20260902163047 30 237 8.0 20.9 0.00 0.15 0.00 79 1013.5
20260902162947 30 290 9.7 22.5 0.00 0.15 0.00 79 1013.5
20260902162846 30 344 11.3 22.5 0.00 0.15 0.00 79 1013.4
20260902162747 30 272 14.5 22.5 0.00 0.15 0.00 79 1013.5
20260902162647 30 251 16.1 22.5 0.00 0.15 0.00 79 1013.6
20260902162546 30 251 16.1 22.5 0.00 0.15 0.00 79 1013.5
20260902162447 30 251 16.1 22.5 0.00 0.15 0.00 79 1013.5
20260902162347 30 251 16.1 22.5 0.00 0.15 0.00 79 1013.5
20260902162246 30 251 16.1 22.5 0.00 0.15 0.00 79 1013.5
20260902162133 30 238 16.1 22.5 0.00 0.15 0.00 79 1013.5
20260902162032 30 296 11.3 22.5 0.00 0.15 0.00 79 1013.5
20260902161931 30 314 12.9 22.5 0.00 0.15 0.00 79 1013.5
20260902161831 30 262 14.5 22.5 0.00 0.15 0.00 79 1013.4
20260902161732 30 254 14.5 24.1 0.00 0.15 0.00 79 1013.4
20260902161631 30 278 14.5 24.1 0.00 0.15 0.00 79 1013.5
20260902161532 30 248 12.9 24.1 0.00 0.15 0.00 79 1013.5
20260902161431 30 283 12.9 24.1 0.00 0.15 0.00 79 1013.4
20260902161331 30 209 14.5 24.1 0.00 0.15 0.00 79 1013.5
20260902161232 30 243 12.9 24.1 0.00 0.15 0.00 79 1013.5
20260902161132 30 247 11.3 24.1 0.00 0.15 0.00 79 1013.4
20260902161032 30 300 14.5 25.7 0.00 0.15 0.00 79 1013.5
20260902160931 30 258 14.5 25.7 0.00 0.15 0.00 79 1013.5
20260902160831 30 231 12.9 25.7 0.00 0.15 0.00 79 1013.5
20260902160732 30 281 11.3 25.7 0.00 0.15 0.00 79 1013.5
20260902160632 30 285 11.3 25.7 0.00 0.15 0.00 80 1013.5
20260902160533 30 231 11.3 25.7 0.00 0.15 0.00 80 1013.5
20260902160432 30 247 12.9 25.7 0.00 0.15 0.00 80 1013.5
20260902160332 30 326 12.9 25.7 0.00 0.15 0.00 80 1013.5
20260902160231 30 234 14.5 25.7 0.00 0.15 0.00 80 1013.4
20260902160132 30 252 16.1 25.7 0.00 0.15 0.00 80 1013.5
20260902160032 30 264 14.5 22.5 0.00 0.15 0.00 80 1013.4
20260902155932 30 241 14.5 22.5 0.00 0.15 0.00 80 1013.4
20260902155831 30 269 14.5 22.5 0.00 0.15 0.00 80 1013.4
20260902155730 30 286 14.5 22.5 0.00 0.15 0.00 80 1013.4
20260902155633 30 241 12.9 22.5 0.00 0.15 0.00 80 1013.5
20260902155531 30 268 12.9 22.5 0.00 0.15 0.00 80 1013.4
20260902155431 30 305 11.3 22.5 0.00 0.15 0.00 81 1013.4
20260902155332 30 279 11.3 20.9 0.00 0.15 0.00 81 1013.3
20260902155231 30 299 14.5 20.9 0.00 0.15 0.00 81 1013.4
20260902155131 30 281 9.7 20.9 0.00 0.15 0.00 81 1013.3
20260902155031 30 250 11.3 20.9 0.00 0.15 0.00 81 1013.3
20260902154931 30 276 14.5 20.9 0.00 0.15 0.00 81 1013.3
20260902154832 30 324 12.9 19.3 0.00 0.15 0.00 81 1013.3
20260902154730 30 243 9.7 19.3 0.00 0.15 0.00 81 1013.3
20260902154632 30 247 9.7 19.3 0.00 0.15 0.00 81 1013.2
20260902154532 30 245 8.0 19.3 0.00 0.15 0.00 82 1013.3
20260902154432 30 189 9.7 24.1 0.00 0.15 0.00 82 1013.3
20260902154334 30 203 11.3 25.7 0.00 0.15 0.00 82 1013.3
20260902154232 30 171 11.3 25.7 0.00 0.15 0.00 82 1013.3
20260902154130 30 206 11.3 32.2 0.00 0.15 0.00 82 1013.3
20260902154031 30 203 11.3 32.2 0.00 0.15 0.00 82 1013.3
20260902153932 30 209 9.7 32.2 0.00 0.15 0.00 82 1013.2
20260902153832 30 214 9.7 32.2 0.00 0.15 0.00 82 1013.3
20260902153731 30 245 9.7 32.2 0.00 0.15 0.00 82 1013.2
20260902153632 30 202 14.5 32.2 0.00 0.15 0.00 82 1013.3
20260902153532 29 200 17.7 32.2 0.00 0.15 0.00 82 1013.3
20260902153432 30 213 20.9 32.2 0.00 0.15 0.00 82 1013.3
20260902153331 30 203 19.3 32.2 0.00 0.15 0.00 82 1013.4
20260902153232 30 183 17.7 32.2 0.00 0.15 0.00 82 1013.3
20260902153131 30 169 17.7 25.7 0.00 0.15 0.00 82 1013.3
20260902153031 30 159 16.1 25.7 0.00 0.15 0.00 82 1013.2
20260902152932 30 125 14.5 25.7 0.00 0.15 0.00 82 1013.3
20260902152831 29 145 11.3 22.5 0.00 0.15 0.00 83 1013.3
20260902152731 29 178 8.0 22.5 0.00 0.15 0.00 82 1013.3
20260902152633 29 189 9.7 22.5 0.00 0.15 0.00 82 1013.2
20260902152526 29 188 9.7 22.5 0.00 0.15 0.00 83 1013.4
20260902152424 29 142 9.7 24.1 0.00 0.15 0.00 83 1013.2
20260902152324 29 178 11.3 24.1 0.00 0.15 0.00 83 1013.3
20260902152221 29 173 9.7 24.1 0.00 0.15 0.00 84 1013.3
20260902152121 29 172 11.3 24.1 0.00 0.15 0.00 84 1013.2
20260902152018 29 154 14.5 24.1 0.00 0.15 0.00 84 1013.2
20260902151918 29 168 14.5 27.4 0.00 0.15 0.00 84 1013.2
20260902151815 29 155 12.9 29.0 0.00 0.15 0.00 84 1013.3
20260902151714 29 152 14.5 30.6 0.00 0.15 0.00 84 1013.2
20260902151609 29 161 14.5 30.6 0.00 0.15 0.00 84 1013.2
20260902151509 29 168 14.5 30.6 0.00 0.15 0.00 84 1013.3
20260902151406 29 173 14.5 30.6 0.00 0.15 0.00 84 1013.3
20260902151305 29 149 8.0 30.6 0.00 0.15 0.00 84 1013.2
20260902151205 29 179 16.1 30.6 0.00 0.15 0.00 84 1013.3
20260902151103 29 179 16.1 30.6 0.00 0.15 0.00 84 1013.3
20260902150959 29 0 19.3 30.6 0.00 0.15 0.00 84 1013.3
20260902150857 29 224 17.7 30.6 0.00 0.15 0.00 85 1013.2
20260902150757 29 219 14.5 25.7 0.00 0.15 0.00 85 1013.2
20260902150654 29 224 11.3 27.4 0.00 0.15 0.00 85 1013.3
20260902150552 29 293 12.9 27.4 0.00 0.15 0.00 85 1013.3
20260902150453 29 299 16.1 27.4 0.00 0.15 0.00 86 1013.2
20260902150348 29 272 17.7 27.4 0.00 0.15 0.00 85 1013.2
20260902150247 29 238 17.7 27.4 0.00 0.15 0.00 86 1013.3
20260902150146 29 237 16.1 27.4 0.00 0.15 0.00 86 1013.2
20260902150048 29 224 17.7 27.4 0.00 0.15 0.00 86 1013.2
20260902145944 29 235 16.1 27.4 0.00 0.15 0.00 86 1013.2
20260902145843 28 250 17.7 27.4 0.00 0.15 0.00 86 1013.2
20260902145743 28 235 17.7 27.4 0.00 0.15 0.00 86 1013.1
20260902145645 28 224 12.9 25.7 0.00 0.15 0.00 86 1013.2
20260902145543 28 259 12.9 25.7 0.00 0.15 0.00 86 1013.1
20260902145444 28 248 16.1 25.7 0.00 0.15 0.00 86 1013.3
20260902145345 28 278 14.5 25.7 0.00 0.15 0.00 86 1013.2
20260902145243 28 251 11.3 25.7 0.00 0.15 0.00 86 1013.2
20260902145143 28 227 11.3 24.1 0.00 0.15 0.00 87 1013.1
20260902145043 28 259 12.9 24.1 0.00 0.15 0.00 87 1013.1
20260902144945 28 255 12.9 24.1 0.00 0.15 0.00 87 1013.1
20260902144844 28 227 14.5 24.1 0.00 0.15 0.00 87 1013.1
20260902144743 28 202 14.5 24.1 0.00 0.15 0.00 87 1013.2
20260902144644 28 212 11.3 22.5 0.00 0.15 0.00 87 1013.1
20260902144544 28 272 11.3 22.5 0.00 0.15 0.00 87 1013.1
20260902144443 28 261 11.3 20.9 0.00 0.15 0.00 87 1013.2
20260902144343 28 262 12.9 20.9 0.00 0.15 0.00 88 1013.2
20260902144246 28 251 14.5 20.9 0.00 0.15 0.00 87 1013.2
20260902144143 28 264 9.7 17.7 0.00 0.15 0.00 88 1013.2
20260902144043 28 255 6.4 17.7 0.00 0.15 0.00 88 1013.2
20260902143945 28 235 8.0 17.7 0.00 0.15 0.00 88 1013.2
20260902143843 28 279 9.7 17.7 0.00 0.15 0.00 88 1013.2
20260902143745 28 265 9.7 17.7 0.00 0.15 0.00 88 1013.2
20260902143645 28 235 11.3 17.7 0.00 0.15 0.00 88 1013.2
20260902143543 28 217 11.3 17.7 0.00 0.15 0.00 88 1013.2
20260902143444 28 235 9.7 17.7 0.00 0.15 0.00 88 1013.2
20260902143343 28 296 9.7 20.9 0.00 0.15 0.00 88 1013.3
20260902143244 28 244 8.0 20.9 0.00 0.15 0.00 88 1013.1
20260902143144 28 288 8.0 20.9 0.00 0.15 0.00 89 1013.1
20260902143044 28 213 9.7 20.9 0.00 0.15 0.00 89 1013.1
20260902142943 28 255 9.7 20.9 0.00 0.15 0.00 89 1013.1
20260902142844 28 212 9.7 20.9 0.00 0.15 0.00 89 1013.1
20260902142743 28 250 9.7 20.9 0.00 0.15 0.00 89 1013.1
20260902142645 28 247 11.3 20.9 0.00 0.15 0.00 89 1013.1
20260902142544 28 247 11.3 20.9 0.00 0.15 0.00 89 1013.2
20260902142443 28 238 11.3 20.9 0.00 0.15 0.00 89 1013.1
20260902142343 28 188 11.3 20.9 0.00 0.15 0.00 89 1013.2
20260902142244 28 262 9.7 20.9 0.00 0.15 0.00 89 1013.1
20260902142143 28 278 9.7 20.9 0.00 0.15 0.00 89 1013.2
20260902142043 28 254 9.7 20.9 0.00 0.15 0.00 89 1013.1
20260902141942 28 251 11.3 20.9 0.00 0.15 0.00 89 1013.1
20260902141845 28 259 11.3 20.9 0.00 0.15 0.00 89 1013.1
20260902141744 28 223 12.9 20.9 0.00 0.15 0.00 89 1013.1